Observation data for Wall on 11/19/2019      Previous  Date       Current Mesonet Observations  Soil Data  Daily Summary Page  Observations in Plain Language
KWA1 190600Z 28002KT 07/01 A2997 RMK A01 T00680014  RH  068%=      5-min Rain = 0
KWA1 190601Z 28003KT 07/01 A2997 RMK A01 T00670014  RH  069%=      5-min Rain = 0
KWA1 190602Z 28003KT 07/01 A2997 RMK A01 T00670014  RH  069%=      5-min Rain = 0
KWA1 190603Z 28003KT 07/01 A2997 RMK A01 T00670013  RH  069%=      5-min Rain = 0
KWA1 190604Z 28003KT 07/01 A2997 RMK A01 T00670013  RH  068%=      5-min Rain = 0
KWA1 190605Z 28003KT 07/01 A2997 RMK A01 T00680014  RH  068%=      5-min Rain = 0
KWA1 190606Z 27002KT 07/01 A2997 RMK A01 T00680014  RH  068%=      5-min Rain = 0
KWA1 190607Z 28003KT 07/01 A2997 RMK A01 T00680014  RH  068%=      5-min Rain = 0
KWA1 190608Z 28003KT 07/01 A2997 RMK A01 T00690014  RH  068%=      5-min Rain = 0
KWA1 190609Z 28003KT 07/02 A2997 RMK A01 T00690015  RH  068%=      5-min Rain = 0
KWA1 190610Z 29003KT 07/02 A2997 RMK A01 T00700015  RH  068%=      5-min Rain = 0
KWA1 190611Z 29004KT 07/02 A2997 RMK A01 T00720016  RH  067%=      5-min Rain = 0
KWA1 190612Z 29004KT 07/02 A2997 RMK A01 T00730016  RH  067%=      5-min Rain = 0
KWA1 190613Z 28004KT 07/02 A2997 RMK A01 T00740015  RH  066%=      5-min Rain = 0
KWA1 190614Z 29004KT 07/02 A2997 RMK A01 T00740016  RH  066%=      5-min Rain = 0
KWA1 190615Z 29004KT 07/02 A2997 RMK A01 T00740015  RH  066%=      5-min Rain = 0
KWA1 190616Z 29004KT 07/02 A2997 RMK A01 T00740015  RH  066%=      5-min Rain = 0
KWA1 190617Z 28004KT 07/02 A2997 RMK A01 T00740015  RH  066%=      5-min Rain = 0
KWA1 190618Z 28004KT 07/02 A2997 RMK A01 T00740015  RH  066%=      5-min Rain = 0
KWA1 190619Z 28003KT 07/02 A2997 RMK A01 T00730015  RH  066%=      5-min Rain = 0
KWA1 190620Z 28004KT 07/02 A2997 RMK A01 T00730015  RH  067%=      5-min Rain = 0
KWA1 190621Z 27003KT 07/02 A2997 RMK A01 T00720015  RH  067%=      5-min Rain = 0
KWA1 190622Z 28002KT 07/02 A2997 RMK A01 T00720015  RH  067%=      5-min Rain = 0
KWA1 190623Z 28002KT 07/02 A2997 RMK A01 T00720015  RH  067%=      5-min Rain = 0
KWA1 190624Z 28002KT 07/02 A2997 RMK A01 T00720016  RH  067%=      5-min Rain = 0
KWA1 190625Z 28002KT 07/02 A2997 RMK A01 T00740016  RH  067%=      5-min Rain = 0
KWA1 190626Z 28002KT 07/02 A2997 RMK A01 T00740016  RH  067%=      5-min Rain = 0
KWA1 190627Z 29002KT 08/02 A2997 RMK A01 T00750017  RH  067%=      5-min Rain = 0
KWA1 190628Z 28002KT 08/02 A2997 RMK A01 T00760017  RH  066%=      5-min Rain = 0
KWA1 190629Z 28003KT 08/02 A2997 RMK A01 T00780018  RH  066%=      5-min Rain = 0
KWA1 190630Z 28002KT 08/02 A2997 RMK A01 T00790018  RH  065%=      5-min Rain = 0
KWA1 190631Z 28003KT 08/02 A2997 RMK A01 T00810019  RH  065%=      5-min Rain = 0
KWA1 190632Z 27003KT 08/02 A2997 RMK A01 T00820019  RH  065%=      5-min Rain = 0
KWA1 190633Z 28003KT 08/02 A2997 RMK A01 T00830019  RH  064%=      5-min Rain = 0
KWA1 190634Z 27003KT 08/02 A2997 RMK A01 T00840019  RH  064%=      5-min Rain = 0
KWA1 190635Z 28003KT 08/02 A2997 RMK A01 T00840018  RH  063%=      5-min Rain = 0
KWA1 190636Z 28003KT 08/02 A2997 RMK A01 T00830018  RH  063%=      5-min Rain = 0
KWA1 190637Z 28003KT 08/02 A2997 RMK A01 T00800016  RH  064%=      5-min Rain = 0
KWA1 190638Z 28003KT 08/02 A2997 RMK A01 T00780016  RH  065%=      5-min Rain = 0
KWA1 190639Z 27003KT 08/02 A2997 RMK A01 T00770016  RH  065%=      5-min Rain = 0
KWA1 190640Z 27004KT 08/02 A2997 RMK A01 T00760016  RH  066%=      5-min Rain = 0
KWA1 190641Z 28004KT 08/02 A2997 RMK A01 T00750015  RH  066%=      5-min Rain = 0
KWA1 190642Z 28004KT 07/02 A2997 RMK A01 T00730015  RH  066%=      5-min Rain = 0
KWA1 190643Z 27004KT 07/02 A2997 RMK A01 T00720016  RH  067%=      5-min Rain = 0
KWA1 190644Z 27004KT 07/02 A2997 RMK A01 T00720015  RH  067%=      5-min Rain = 0
KWA1 190645Z 27004KT 07/02 A2997 RMK A01 T00710015  RH  068%=      5-min Rain = 0
KWA1 190646Z 27004KT 07/02 A2997 RMK A01 T00710016  RH  068%=      5-min Rain = 0
KWA1 190647Z 27004KT 07/02 A2997 RMK A01 T00700016  RH  068%=      5-min Rain = 0
KWA1 190648Z 28005KT 07/02 A2997 RMK A01 T00690015  RH  069%=      5-min Rain = 0
KWA1 190649Z 28005KT 07/01 A2997 RMK A01 T00680014  RH  069%=      5-min Rain = 0
KWA1 190650Z 28005KT 07/01 A2997 RMK A01 T00660014  RH  069%=      5-min Rain = 0
KWA1 190651Z 28005KT 07/02 A2997 RMK A01 T00660015  RH  070%=      5-min Rain = 0
KWA1 190652Z 27004KT 07/02 A2997 RMK A01 T00660015  RH  070%=      5-min Rain = 0
KWA1 190653Z 28004KT 07/02 A2997 RMK A01 T00660015  RH  070%=      5-min Rain = 0
KWA1 190654Z 27004KT 07/02 A2997 RMK A01 T00650016  RH  070%=      5-min Rain = 0
KWA1 190655Z 28004KT 07/02 A2997 RMK A01 T00660016  RH  070%=      5-min Rain = 0
KWA1 190656Z 28005KT 07/02 A2997 RMK A01 T00660016  RH  070%=      5-min Rain = 0
KWA1 190657Z 27004KT 07/02 A2997 RMK A01 T00660016  RH  070%=      5-min Rain = 0
KWA1 190658Z 27004KT 07/02 A2997 RMK A01 T00660017  RH  070%=      5-min Rain = 0
KWA1 190659Z 28005KT 07/02 A2997 RMK A01 T00670017  RH  070%=      5-min Rain = 0
KWA1 190700Z 28005KT 07/02 A2997 RMK A01 T00670017  RH  070%=      5-min Rain = 0
KWA1 190701Z 28005KT 07/02 A2997 RMK A01 T00670017  RH  070%=      5-min Rain = 0
KWA1 190702Z 28004KT 07/02 A2997 RMK A01 T00670016  RH  070%=      5-min Rain = 0
KWA1 190703Z 28003KT 07/02 A2998 RMK A01 T00670016  RH  070%=      5-min Rain = 0
KWA1 190704Z 29003KT 07/01 A2998 RMK A01 T00660014  RH  070%=      5-min Rain = 0
KWA1 190705Z 29003KT 07/02 A2997 RMK A01 T00660015  RH  070%=      5-min Rain = 0
KWA1 190706Z 29004KT 07/02 A2997 RMK A01 T00650015  RH  070%=      5-min Rain = 0
KWA1 190707Z 29004KT 07/02 A2997 RMK A01 T00650015  RH  070%=      5-min Rain = 0
KWA1 190708Z 29005KT 06/02 A2997 RMK A01 T00640015  RH  071%=      5-min Rain = 0
KWA1 190709Z 29005KT 06/02 A2997 RMK A01 T00640016  RH  071%=      5-min Rain = 0
KWA1 190710Z 28005KT 06/02 A2997 RMK A01 T00640016  RH  071%=      5-min Rain = 0
KWA1 190711Z 28005KT 07/02 A2997 RMK A01 T00650016  RH  071%=      5-min Rain = 0
KWA1 190712Z 28005KT 07/02 A2997 RMK A01 T00650016  RH  071%=      5-min Rain = 0
KWA1 190713Z 28005KT 06/02 A2997 RMK A01 T00640016  RH  071%=      5-min Rain = 0
KWA1 190714Z 28005KT 06/02 A2997 RMK A01 T00640016  RH  071%=      5-min Rain = 0
KWA1 190715Z 28005KT 06/02 A2997 RMK A01 T00640016  RH  071%=      5-min Rain = 0
KWA1 190716Z 28005KT 06/02 A2997 RMK A01 T00640016  RH  071%=      5-min Rain = 0
KWA1 190717Z 28005KT 06/02 A2997 RMK A01 T00630015  RH  071%=      5-min Rain = 0
KWA1 190718Z 28005KT 06/02 A2997 RMK A01 T00630015  RH  071%=      5-min Rain = 0
KWA1 190719Z 28005KT 06/02 A2997 RMK A01 T00620015  RH  072%=      5-min Rain = 0
KWA1 190720Z 28006KT 06/01 A2997 RMK A01 T00610014  RH  072%=      5-min Rain = 0
KWA1 190721Z 28006KT 06/02 A2997 RMK A01 T00610015  RH  072%=      5-min Rain = 0
KWA1 190722Z 28006KT 06/01 A2997 RMK A01 T00600014  RH  072%=      5-min Rain = 0
KWA1 190723Z 28006KT 06/01 A2997 RMK A01 T00600014  RH  073%=      5-min Rain = 0
KWA1 190724Z 28006KT 06/01 A2997 RMK A01 T00590014  RH  073%=      5-min Rain = 0
KWA1 190725Z 28006KT 06/02 A2997 RMK A01 T00600015  RH  073%=      5-min Rain = 0
KWA1 190726Z 28006KT 06/02 A2997 RMK A01 T00590015  RH  073%=      5-min Rain = 0
KWA1 190727Z 28006KT 06/02 A2997 RMK A01 T00600016  RH  074%=      5-min Rain = 0
KWA1 190728Z 28006KT 06/02 A2997 RMK A01 T00620019  RH  074%=      5-min Rain = 0
KWA1 190729Z 28006KT 06/02 A2997 RMK A01 T00640020  RH  073%=      5-min Rain = 0
KWA1 190730Z 28006KT 07/02 A2997 RMK A01 T00660021  RH  073%=      5-min Rain = 0
KWA1 190731Z 28006KT 07/02 A2997 RMK A01 T00670022  RH  073%=      5-min Rain = 0
KWA1 190732Z 28006KT 07/02 A2997 RMK A01 T00690022  RH  072%=      5-min Rain = 0
KWA1 190733Z 28005KT 07/02 A2997 RMK A01 T00700022  RH  072%=      5-min Rain = 0
KWA1 190734Z 28005KT 07/02 A2997 RMK A01 T00700022  RH  071%=      5-min Rain = 0
KWA1 190735Z 28005KT 07/02 A2997 RMK A01 T00700022  RH  071%=      5-min Rain = 0
KWA1 190736Z 28005KT 07/02 A2997 RMK A01 T00710022  RH  071%=      5-min Rain = 0
KWA1 190737Z 28005KT 07/02 A2997 RMK A01 T00700022  RH  071%=      5-min Rain = 0
KWA1 190738Z 28005KT 07/02 A2997 RMK A01 T00700023  RH  072%=      5-min Rain = 0
KWA1 190739Z 28005KT 07/02 A2997 RMK A01 T00700022  RH  072%=      5-min Rain = 0
KWA1 190740Z 28006KT 07/02 A2997 RMK A01 T00700023  RH  072%=      5-min Rain = 0
KWA1 190741Z 28006KT 07/02 A2997 RMK A01 T00700023  RH  072%=      5-min Rain = 0
KWA1 190742Z 28006KT 07/02 A2997 RMK A01 T00690023  RH  072%=      5-min Rain = 0
KWA1 190743Z 28006KT 07/02 A2997 RMK A01 T00700023  RH  072%=      5-min Rain = 0
KWA1 190744Z 28006KT 07/02 A2997 RMK A01 T00710023  RH  072%=      5-min Rain = 0
KWA1 190745Z 28007KT 07/02 A2997 RMK A01 T00710023  RH  072%=      5-min Rain = 0
KWA1 190746Z 28007KT 07/02 A2997 RMK A01 T00710023  RH  072%=      5-min Rain = 0
KWA1 190747Z 28007KT 07/02 A2997 RMK A01 T00710023  RH  072%=      5-min Rain = 0
KWA1 190748Z 28007KT 07/02 A2997 RMK A01 T00720024  RH  072%=      5-min Rain = 0
KWA1 190749Z 28007KT 07/03 A2997 RMK A01 T00730025  RH  071%=      5-min Rain = 0
KWA1 190750Z 28007KT 07/03 A2997 RMK A01 T00740025  RH  071%=      5-min Rain = 0
KWA1 190751Z 28007KT 08/03 A2997 RMK A01 T00750026  RH  071%=      5-min Rain = 0
KWA1 190752Z 28007KT 08/03 A2997 RMK A01 T00750025  RH  070%=      5-min Rain = 0
KWA1 190753Z 28007KT 08/03 A2997 RMK A01 T00760026  RH  070%=      5-min Rain = 0
KWA1 190754Z 28006KT 08/03 A2997 RMK A01 T00760025  RH  070%=      5-min Rain = 0
KWA1 190755Z 28006KT 08/03 A2997 RMK A01 T00770025  RH  070%=      5-min Rain = 0
KWA1 190756Z 28006KT 08/03 A2997 RMK A01 T00760025  RH  070%=      5-min Rain = 0
KWA1 190757Z 28006KT 08/03 A2997 RMK A01 T00760025  RH  070%=      5-min Rain = 0
KWA1 190758Z 28006KT 08/03 A2997 RMK A01 T00750025  RH  070%=      5-min Rain = 0
KWA1 190759Z 28006KT 07/02 A2997 RMK A01 T00740024  RH  071%=      5-min Rain = 0
KWA1 190800Z 28006KT 07/02 A2997 RMK A01 T00740024  RH  071%=      5-min Rain = 0
KWA1 190801Z 28007KT 07/02 A2997 RMK A01 T00730024  RH  071%=      5-min Rain = 0
KWA1 190802Z 28007KT 07/02 A2997 RMK A01 T00730024  RH  071%=      5-min Rain = 0
KWA1 190803Z 28007KT 07/02 A2998 RMK A01 T00720024  RH  071%=      5-min Rain = 0
KWA1 190804Z 28008KT 07/02 A2998 RMK A01 T00720024  RH  072%=      5-min Rain = 0
KWA1 190805Z 28008KT 07/02 A2998 RMK A01 T00720024  RH  072%=      5-min Rain = 0
KWA1 190806Z 28008KT 07/02 A2998 RMK A01 T00720024  RH  072%=      5-min Rain = 0
KWA1 190807Z 28008KT 07/02 A2998 RMK A01 T00720024  RH  072%=      5-min Rain = 0
KWA1 190808Z 28008KT 07/02 A2998 RMK A01 T00720024  RH  071%=      5-min Rain = 0
KWA1 190809Z 28008KT 07/02 A2998 RMK A01 T00720024  RH  072%=      5-min Rain = 0
KWA1 190810Z 28007KT 07/02 A2998 RMK A01 T00710024  RH  072%=      5-min Rain = 0
KWA1 190811Z 28007KT 07/02 A2998 RMK A01 T00710024  RH  072%=      5-min Rain = 0
KWA1 190812Z 28007KT 07/02 A2998 RMK A01 T00710024  RH  072%=      5-min Rain = 0
KWA1 190813Z 27007KT 07/02 A2998 RMK A01 T00710024  RH  072%=      5-min Rain = 0
KWA1 190814Z 27007KT 07/02 A2998 RMK A01 T00710024  RH  072%=      5-min Rain = 0
KWA1 190815Z 28007KT 07/02 A2998 RMK A01 T00710024  RH  072%=      5-min Rain = 0
KWA1 190816Z 28007KT 07/02 A2998 RMK A01 T00700023  RH  072%=      5-min Rain = 0
KWA1 190817Z 27007KT 07/02 A2998 RMK A01 T00690023  RH  072%=      5-min Rain = 0
KWA1 190818Z 27006KT 07/02 A2998 RMK A01 T00690023  RH  073%=      5-min Rain = 0
KWA1 190819Z 28006KT 07/02 A2998 RMK A01 T00680022  RH  073%=      5-min Rain = 0
KWA1 190820Z 27006KT 07/02 A2998 RMK A01 T00680022  RH  073%=      5-min Rain = 0
KWA1 190821Z 28006KT 07/02 A2998 RMK A01 T00670022  RH  073%=      5-min Rain = 0
KWA1 190822Z 28007KT 07/02 A2998 RMK A01 T00670022  RH  073%=      5-min Rain = 0
KWA1 190823Z 27006KT 07/02 A2998 RMK A01 T00660022  RH  073%=      5-min Rain = 0
KWA1 190824Z 27006KT 07/02 A2998 RMK A01 T00660022  RH  073%=      5-min Rain = 0
KWA1 190825Z 27006KT 07/02 A2998 RMK A01 T00660022  RH  073%=      5-min Rain = 0
KWA1 190826Z 27006KT 07/02 A2998 RMK A01 T00660021  RH  073%=      5-min Rain = 0
KWA1 190827Z 28006KT 07/02 A2998 RMK A01 T00660021  RH  073%=      5-min Rain = 0
KWA1 190828Z 27006KT 07/02 A2998 RMK A01 T00660021  RH  073%=      5-min Rain = 0
KWA1 190829Z 27006KT 07/02 A2998 RMK A01 T00660021  RH  073%=      5-min Rain = 0
KWA1 190830Z 28006KT 07/02 A2998 RMK A01 T00650020  RH  073%=      5-min Rain = 0
KWA1 190831Z 28007KT 07/02 A2998 RMK A01 T00650020  RH  073%=      5-min Rain = 0
KWA1 190832Z 28007KT 07/02 A2998 RMK A01 T00650021  RH  074%=      5-min Rain = 0
KWA1 190833Z 28006KT 06/02 A2998 RMK A01 T00640020  RH  074%=      5-min Rain = 0
KWA1 190834Z 28007KT 06/02 A2998 RMK A01 T00640020  RH  074%=      5-min Rain = 0
KWA1 190835Z 28006KT 06/02 A2998 RMK A01 T00630020  RH  074%=      5-min Rain = 0
KWA1 190836Z 28006KT 06/02 A2998 RMK A01 T00630020  RH  074%=      5-min Rain = 0
KWA1 190837Z 28007KT 06/02 A2998 RMK A01 T00620019  RH  074%=      5-min Rain = 0
KWA1 190838Z 28007KT 06/02 A2998 RMK A01 T00610019  RH  075%=      5-min Rain = 0
KWA1 190839Z 28007KT 06/02 A2998 RMK A01 T00600019  RH  075%=      5-min Rain = 0
KWA1 190840Z 28007KT 06/02 A2998 RMK A01 T00600019  RH  075%=      5-min Rain = 0
KWA1 190841Z 28006KT 06/02 A2998 RMK A01 T00590019  RH  075%=      5-min Rain = 0
KWA1 190842Z 27006KT 06/02 A2998 RMK A01 T00590019  RH  076%=      5-min Rain = 0
KWA1 190843Z 27006KT 06/02 A2998 RMK A01 T00590020  RH  076%=      5-min Rain = 0
KWA1 190844Z 27006KT 06/02 A2998 RMK A01 T00590020  RH  076%=      5-min Rain = 0
KWA1 190845Z 27006KT 06/02 A2998 RMK A01 T00590019  RH  076%=      5-min Rain = 0
KWA1 190846Z 27006KT 06/02 A2998 RMK A01 T00590019  RH  076%=      5-min Rain = 0
KWA1 190847Z 27006KT 06/02 A2998 RMK A01 T00590020  RH  076%=      5-min Rain = 0
KWA1 190848Z 27006KT 06/02 A2998 RMK A01 T00590020  RH  076%=      5-min Rain = 0
KWA1 190849Z 27006KT 06/02 A2998 RMK A01 T00590020  RH  076%=      5-min Rain = 0
KWA1 190850Z 27006KT 06/02 A2998 RMK A01 T00580020  RH  076%=      5-min Rain = 0
KWA1 190851Z 27006KT 06/02 A2998 RMK A01 T00590020  RH  076%=      5-min Rain = 0
KWA1 190852Z 27006KT 06/02 A2997 RMK A01 T00590020  RH  076%=      5-min Rain = 0
KWA1 190853Z 27006KT 06/02 A2997 RMK A01 T00590021  RH  077%=      5-min Rain = 0
KWA1 190854Z 27006KT 06/02 A2997 RMK A01 T00600022  RH  077%=      5-min Rain = 0
KWA1 190855Z 27006KT 06/02 A2997 RMK A01 T00600021  RH  076%=      5-min Rain = 0
KWA1 190856Z 27006KT 06/02 A2997 RMK A01 T00600021  RH  076%=      5-min Rain = 0
KWA1 190857Z 27005KT 06/02 A2997 RMK A01 T00600021  RH  076%=      5-min Rain = 0
KWA1 190858Z 27005KT 06/02 A2997 RMK A01 T00600021  RH  076%=      5-min Rain = 0
KWA1 190859Z 27006KT 06/02 A2997 RMK A01 T00600021  RH  076%=      5-min Rain = 0
KWA1 190900Z 27006KT 06/02 A2997 RMK A01 T00600022  RH  076%=      5-min Rain = 0
KWA1 190901Z 27005KT 06/02 A2997 RMK A01 T00610022  RH  076%=      5-min Rain = 0
KWA1 190902Z 27005KT 06/02 A2997 RMK A01 T00610023  RH  076%=      5-min Rain = 0
KWA1 190903Z 28005KT 06/02 A2997 RMK A01 T00620023  RH  076%=      5-min Rain = 0
KWA1 190904Z 27005KT 06/02 A2997 RMK A01 T00620022  RH  076%=      5-min Rain = 0
KWA1 190905Z 27005KT 06/02 A2997 RMK A01 T00620023  RH  076%=      5-min Rain = 0
KWA1 190906Z 27005KT 06/02 A2997 RMK A01 T00620023  RH  076%=      5-min Rain = 0
KWA1 190907Z 27005KT 06/02 A2997 RMK A01 T00630023  RH  076%=      5-min Rain = 0
KWA1 190908Z 27005KT 06/02 A2997 RMK A01 T00620022  RH  076%=      5-min Rain = 0
KWA1 190909Z 27005KT 06/02 A2997 RMK A01 T00620022  RH  076%=      5-min Rain = 0
KWA1 190910Z 27005KT 06/02 A2997 RMK A01 T00610023  RH  076%=      5-min Rain = 0
KWA1 190911Z 27005KT 06/02 A2997 RMK A01 T00610023  RH  076%=      5-min Rain = 0
KWA1 190912Z 28006KT 06/02 A2997 RMK A01 T00610023  RH  077%=      5-min Rain = 0
KWA1 190913Z 28006KT 06/02 A2997 RMK A01 T00610023  RH  077%=      5-min Rain = 0
KWA1 190914Z 28006KT 06/02 A2997 RMK A01 T00600022  RH  076%=      5-min Rain = 0
KWA1 190915Z 28006KT 06/02 A2997 RMK A01 T00600021  RH  076%=      5-min Rain = 0
KWA1 190916Z 28007KT 06/02 A2997 RMK A01 T00590021  RH  077%=      5-min Rain = 0
KWA1 190917Z 28007KT 06/02 A2997 RMK A01 T00580022  RH  077%=      5-min Rain = 0
KWA1 190918Z 28007KT 06/02 A2997 RMK A01 T00580022  RH  078%=      5-min Rain = 0
KWA1 190919Z 28007KT 06/02 A2997 RMK A01 T00590022  RH  077%=      5-min Rain = 0
KWA1 190920Z 28007KT 06/02 A2997 RMK A01 T00590022  RH  077%=      5-min Rain = 0
KWA1 190921Z 28007KT 06/02 A2997 RMK A01 T00600022  RH  077%=      5-min Rain = 0
KWA1 190922Z 28007KT 06/02 A2997 RMK A01 T00600022  RH  077%=      5-min Rain = 0
KWA1 190923Z 29007KT 06/02 A2997 RMK A01 T00590022  RH  077%=      5-min Rain = 0
KWA1 190924Z 29007KT 06/02 A2997 RMK A01 T00600023  RH  077%=      5-min Rain = 0
KWA1 190925Z 29007KT 06/02 A2997 RMK A01 T00600023  RH  077%=      5-min Rain = 0
KWA1 190926Z 29007KT 06/02 A2997 RMK A01 T00610023  RH  077%=      5-min Rain = 0
KWA1 190927Z 29007KT 06/02 A2997 RMK A01 T00610023  RH  076%=      5-min Rain = 0
KWA1 190928Z 28007KT 06/02 A2997 RMK A01 T00610022  RH  077%=      5-min Rain = 0
KWA1 190929Z 29006KT 06/02 A2997 RMK A01 T00600022  RH  077%=      5-min Rain = 0
KWA1 190930Z 28007KT 06/02 A2997 RMK A01 T00600022  RH  076%=      5-min Rain = 0
KWA1 190931Z 29007KT 06/02 A2997 RMK A01 T00600022  RH  076%=      5-min Rain = 0
KWA1 190932Z 29007KT 06/02 A2997 RMK A01 T00600022  RH  077%=      5-min Rain = 0
KWA1 190933Z 29007KT 06/02 A2997 RMK A01 T00600022  RH  077%=      5-min Rain = 0
KWA1 190934Z 29007KT 06/02 A2997 RMK A01 T00600022  RH  077%=      5-min Rain = 0
KWA1 190935Z 29007KT 06/02 A2997 RMK A01 T00600022  RH  077%=      5-min Rain = 0
KWA1 190936Z 29007KT 06/02 A2997 RMK A01 T00610023  RH  077%=      5-min Rain = 0
KWA1 190937Z 29007KT 06/02 A2997 RMK A01 T00610023  RH  077%=      5-min Rain = 0
KWA1 190938Z 29007KT 06/02 A2997 RMK A01 T00610023  RH  076%=      5-min Rain = 0
KWA1 190939Z 29007KT 06/02 A2997 RMK A01 T00620023  RH  076%=      5-min Rain = 0
KWA1 190940Z 29008KT 06/02 A2997 RMK A01 T00620023  RH  076%=      5-min Rain = 0
KWA1 190941Z 29008KT 06/02 A2997 RMK A01 T00630024  RH  076%=      5-min Rain = 0
KWA1 190942Z 29007KT 06/03 A2997 RMK A01 T00640025  RH  076%=      5-min Rain = 0
KWA1 190943Z 29007KT 06/03 A2997 RMK A01 T00640025  RH  076%=      5-min Rain = 0
KWA1 190944Z 29007KT 07/03 A2997 RMK A01 T00650025  RH  076%=      5-min Rain = 0
KWA1 190945Z 29007KT 07/03 A2997 RMK A01 T00650025  RH  075%=      5-min Rain = 0
KWA1 190946Z 29007KT 07/02 A2997 RMK A01 T00650024  RH  075%=      5-min Rain = 0
KWA1 190947Z 29007KT 06/02 A2998 RMK A01 T00640024  RH  076%=      5-min Rain = 0
KWA1 190948Z 29007KT 06/02 A2998 RMK A01 T00640024  RH  076%=      5-min Rain = 0
KWA1 190949Z 29007KT 06/02 A2998 RMK A01 T00640024  RH  076%=      5-min Rain = 0
KWA1 190950Z 29007KT 06/02 A2998 RMK A01 T00640024  RH  076%=      5-min Rain = 0
KWA1 190951Z 29006KT 06/02 A2998 RMK A01 T00640024  RH  076%=      5-min Rain = 0
KWA1 190952Z 29007KT 06/02 A2998 RMK A01 T00640024  RH  076%=      5-min Rain = 0
KWA1 190953Z 29007KT 06/02 A2998 RMK A01 T00630023  RH  076%=      5-min Rain = 0
KWA1 190954Z 29007KT 06/02 A2998 RMK A01 T00620023  RH  076%=      5-min Rain = 0
KWA1 190955Z 29007KT 06/02 A2998 RMK A01 T00620022  RH  076%=      5-min Rain = 0
KWA1 190956Z 29006KT 06/02 A2998 RMK A01 T00610023  RH  076%=      5-min Rain = 0
KWA1 190957Z 29006KT 06/02 A2998 RMK A01 T00620023  RH  076%=      5-min Rain = 0
KWA1 190958Z 29006KT 06/02 A2998 RMK A01 T00610023  RH  076%=      5-min Rain = 0
KWA1 190959Z 29006KT 06/02 A2998 RMK A01 T00610023  RH  076%=      5-min Rain = 0
KWA1 191000Z 29006KT 06/02 A2998 RMK A01 T00620023  RH  076%=      5-min Rain = 0
KWA1 191001Z 29006KT 06/02 A2998 RMK A01 T00610022  RH  076%=      5-min Rain = 0
KWA1 191002Z 29006KT 06/02 A2998 RMK A01 T00610022  RH  076%=      5-min Rain = 0
KWA1 191003Z 29005KT 06/02 A2998 RMK A01 T00610022  RH  076%=      5-min Rain = 0
KWA1 191004Z 29005KT 06/02 A2998 RMK A01 T00600022  RH  076%=      5-min Rain = 0
KWA1 191005Z 29005KT 06/02 A2998 RMK A01 T00600021  RH  076%=      5-min Rain = 0
KWA1 191006Z 29005KT 06/02 A2998 RMK A01 T00590021  RH  076%=      5-min Rain = 0
KWA1 191007Z 29005KT 06/02 A2998 RMK A01 T00580021  RH  077%=      5-min Rain = 0
KWA1 191008Z 29005KT 06/02 A2998 RMK A01 T00580021  RH  077%=      5-min Rain = 0
KWA1 191009Z 29005KT 06/02 A2998 RMK A01 T00580021  RH  077%=      5-min Rain = 0
KWA1 191010Z 29005KT 06/02 A2998 RMK A01 T00580021  RH  077%=      5-min Rain = 0
KWA1 191011Z 29005KT 06/02 A2998 RMK A01 T00580021  RH  077%=      5-min Rain = 0
KWA1 191012Z 29005KT 06/02 A2998 RMK A01 T00580022  RH  077%=      5-min Rain = 0
KWA1 191013Z 29006KT 06/02 A2998 RMK A01 T00590022  RH  077%=      5-min Rain = 0
KWA1 191014Z 29006KT 06/02 A2998 RMK A01 T00590022  RH  077%=      5-min Rain = 0
KWA1 191015Z 29006KT 06/02 A2998 RMK A01 T00590021  RH  077%=      5-min Rain = 0
KWA1 191016Z 29007KT 06/02 A2998 RMK A01 T00590021  RH  077%=      5-min Rain = 0
KWA1 191017Z 29007KT 06/02 A2998 RMK A01 T00580022  RH  077%=      5-min Rain = 0
KWA1 191018Z 29007KT 06/02 A2998 RMK A01 T00580021  RH  077%=      5-min Rain = 0
KWA1 191019Z 29006KT 06/02 A2998 RMK A01 T00580021  RH  077%=      5-min Rain = 0
KWA1 191020Z 29006KT 06/02 A2998 RMK A01 T00580022  RH  077%=      5-min Rain = 0
KWA1 191021Z 29006KT 06/02 A2998 RMK A01 T00580022  RH  078%=      5-min Rain = 0
KWA1 191022Z 29006KT 06/02 A2998 RMK A01 T00580022  RH  078%=      5-min Rain = 0
KWA1 191023Z 29006KT 06/02 A2998 RMK A01 T00580022  RH  078%=      5-min Rain = 0
KWA1 191024Z 29006KT 06/02 A2998 RMK A01 T00580022  RH  078%=      5-min Rain = 0
KWA1 191025Z 29006KT 06/02 A2998 RMK A01 T00580023  RH  078%=      5-min Rain = 0
KWA1 191026Z 30006KT 06/02 A2998 RMK A01 T00580022  RH  078%=      5-min Rain = 0
KWA1 191027Z 30006KT 06/02 A2998 RMK A01 T00570021  RH  078%=      5-min Rain = 0
KWA1 191028Z 30005KT 06/02 A2998 RMK A01 T00560021  RH  078%=      5-min Rain = 0
KWA1 191029Z 30005KT 06/02 A2998 RMK A01 T00550020  RH  078%=      5-min Rain = 0
KWA1 191030Z 30005KT 05/02 A2998 RMK A01 T00540020  RH  078%=      5-min Rain = 0
KWA1 191031Z 30005KT 05/02 A2998 RMK A01 T00540020  RH  079%=      5-min Rain = 0
KWA1 191032Z 30005KT 05/02 A2998 RMK A01 T00530020  RH  079%=      5-min Rain = 0
KWA1 191033Z 29006KT 05/02 A2998 RMK A01 T00530020  RH  079%=      5-min Rain = 0
KWA1 191034Z 29006KT 05/02 A2998 RMK A01 T00530021  RH  080%=      5-min Rain = 0
KWA1 191035Z 29006KT 05/02 A2998 RMK A01 T00530021  RH  080%=      5-min Rain = 0
KWA1 191036Z 29007KT 05/02 A2998 RMK A01 T00540021  RH  080%=      5-min Rain = 0
KWA1 191037Z 29007KT 05/02 A2998 RMK A01 T00530021  RH  079%=      5-min Rain = 0
KWA1 191038Z 29007KT 05/02 A2998 RMK A01 T00530020  RH  080%=      5-min Rain = 0
KWA1 191039Z 29007KT 05/02 A2998 RMK A01 T00530021  RH  080%=      5-min Rain = 0
KWA1 191040Z 29007KT 05/02 A2998 RMK A01 T00530021  RH  080%=      5-min Rain = 0
KWA1 191041Z 29007KT 05/02 A2998 RMK A01 T00530020  RH  079%=      5-min Rain = 0
KWA1 191042Z 29008KT 05/02 A2998 RMK A01 T00520019  RH  079%=      5-min Rain = 0
KWA1 191043Z 29008KT 05/02 A2998 RMK A01 T00510019  RH  080%=      5-min Rain = 0
KWA1 191044Z 29008KT 05/02 A2998 RMK A01 T00500018  RH  080%=      5-min Rain = 0
KWA1 191045Z 29008KT 05/02 A2998 RMK A01 T00500018  RH  080%=      5-min Rain = 0
KWA1 191046Z 29008KT 05/02 A2998 RMK A01 T00490018  RH  080%=      5-min Rain = 0
KWA1 191047Z 29008KT 05/02 A2998 RMK A01 T00490019  RH  081%=      5-min Rain = 0
KWA1 191048Z 29008KT 05/02 A2998 RMK A01 T00500019  RH  081%=      5-min Rain = 0
KWA1 191049Z 29008KT 05/02 A2998 RMK A01 T00490020  RH  081%=      5-min Rain = 0
KWA1 191050Z 29008KT 05/02 A2998 RMK A01 T00490020  RH  081%=      5-min Rain = 0
KWA1 191051Z 29008KT 05/02 A2998 RMK A01 T00500020  RH  081%=      5-min Rain = 0
KWA1 191052Z 29008KT 05/02 A2998 RMK A01 T00510021  RH  081%=      5-min Rain = 0
KWA1 191053Z 29008KT 05/02 A2998 RMK A01 T00510021  RH  081%=      5-min Rain = 0
KWA1 191054Z 29008KT 05/02 A2998 RMK A01 T00510021  RH  081%=      5-min Rain = 0
KWA1 191055Z 29008KT 05/02 A2998 RMK A01 T00510021  RH  081%=      5-min Rain = 0
KWA1 191056Z 29008KT 05/02 A2998 RMK A01 T00510021  RH  081%=      5-min Rain = 0
KWA1 191057Z 29008KT 05/02 A2998 RMK A01 T00510020  RH  080%=      5-min Rain = 0
KWA1 191058Z 29007KT 05/02 A2998 RMK A01 T00510020  RH  080%=      5-min Rain = 0
KWA1 191059Z 29007KT 05/02 A2998 RMK A01 T00510020  RH  080%=      5-min Rain = 0
KWA1 191100Z 29007KT 05/02 A2998 RMK A01 T00500019  RH  081%=      5-min Rain = 0
KWA1 191101Z 29007KT 05/02 A2998 RMK A01 T00500020  RH  081%=      5-min Rain = 0
KWA1 191102Z 29007KT 05/02 A2998 RMK A01 T00490020  RH  081%=      5-min Rain = 0
KWA1 191103Z 29007KT 05/02 A2998 RMK A01 T00490020  RH  081%=      5-min Rain = 0
KWA1 191104Z 29007KT 05/02 A2998 RMK A01 T00490020  RH  081%=      5-min Rain = 0
KWA1 191105Z 29007KT 05/02 A2998 RMK A01 T00490020  RH  082%=      5-min Rain = 0
KWA1 191106Z 30006KT 05/02 A2998 RMK A01 T00490020  RH  081%=      5-min Rain = 0
KWA1 191107Z 30006KT 05/02 A2998 RMK A01 T00490020  RH  082%=      5-min Rain = 0
KWA1 191108Z 29006KT 05/02 A2998 RMK A01 T00480020  RH  082%=      5-min Rain = 0
KWA1 191109Z 29005KT 05/02 A2998 RMK A01 T00480020  RH  082%=      5-min Rain = 0
KWA1 191110Z 29005KT 05/02 A2998 RMK A01 T00480020  RH  082%=      5-min Rain = 0
KWA1 191111Z 29006KT 05/02 A2998 RMK A01 T00480020  RH  082%=      5-min Rain = 0
KWA1 191112Z 29006KT 05/02 A2998 RMK A01 T00480020  RH  082%=      5-min Rain = 0
KWA1 191113Z 29006KT 05/02 A2998 RMK A01 T00480021  RH  083%=      5-min Rain = 0
KWA1 191114Z 29005KT 05/02 A2998 RMK A01 T00480022  RH  083%=      5-min Rain = 0
KWA1 191115Z 29005KT 05/02 A2998 RMK A01 T00490023  RH  083%=      5-min Rain = 0
KWA1 191116Z 28004KT 05/02 A2998 RMK A01 T00490023  RH  083%=      5-min Rain = 0
KWA1 191117Z 28003KT 05/02 A2998 RMK A01 T00500024  RH  083%=      5-min Rain = 0
KWA1 191118Z 28003KT 05/02 A2998 RMK A01 T00500024  RH  083%=      5-min Rain = 0
KWA1 191119Z 28003KT 05/02 A2998 RMK A01 T00500023  RH  083%=      5-min Rain = 0
KWA1 191120Z 27003KT 05/02 A2998 RMK A01 T00500023  RH  083%=      5-min Rain = 0
KWA1 191121Z 28003KT 05/02 A2998 RMK A01 T00500024  RH  083%=      5-min Rain = 0
KWA1 191122Z 28003KT 05/02 A2998 RMK A01 T00500024  RH  083%=      5-min Rain = 0
KWA1 191123Z 28002KT 05/03 A2998 RMK A01 T00500025  RH  084%=      5-min Rain = 0
KWA1 191124Z 28003KT 05/03 A2998 RMK A01 T00510026  RH  084%=      5-min Rain = 0
KWA1 191125Z 28003KT 05/03 A2998 RMK A01 T00510026  RH  084%=      5-min Rain = 0
KWA1 191126Z 28003KT 05/03 A2999 RMK A01 T00520028  RH  084%=      5-min Rain = 0
KWA1 191127Z 27003KT 05/03 A2999 RMK A01 T00530028  RH  084%=      5-min Rain = 0
KWA1 191128Z 27003KT 05/03 A2999 RMK A01 T00530028  RH  084%=      5-min Rain = 0
KWA1 191129Z 27003KT 05/03 A2999 RMK A01 T00530028  RH  084%=      5-min Rain = 0
KWA1 191130Z 27003KT 05/03 A2999 RMK A01 T00530028  RH  084%=      5-min Rain = 0
KWA1 191131Z 27003KT 05/03 A2998 RMK A01 T00540028  RH  084%=      5-min Rain = 0
KWA1 191132Z 27003KT 05/03 A2998 RMK A01 T00530028  RH  084%=      5-min Rain = 0
KWA1 191133Z 26003KT 05/03 A2998 RMK A01 T00540028  RH  084%=      5-min Rain = 0
KWA1 191134Z 27003KT 05/03 A2998 RMK A01 T00540028  RH  083%=      5-min Rain = 0
KWA1 191135Z 26003KT 05/03 A2998 RMK A01 T00540027  RH  083%=      5-min Rain = 0
KWA1 191136Z 26003KT 05/03 A2998 RMK A01 T00530026  RH  083%=      5-min Rain = 0
KWA1 191137Z 27003KT 05/03 A2998 RMK A01 T00520025  RH  083%=      5-min Rain = 0
KWA1 191138Z 27003KT 05/03 A2998 RMK A01 T00520026  RH  083%=      5-min Rain = 0
KWA1 191139Z 27004KT 05/03 A2998 RMK A01 T00510026  RH  084%=      5-min Rain = 0
KWA1 191140Z 27004KT 05/03 A2998 RMK A01 T00510026  RH  084%=      5-min Rain = 0
KWA1 191141Z 27004KT 05/03 A2998 RMK A01 T00510025  RH  084%=      5-min Rain = 0
KWA1 191142Z 27004KT 05/03 A2998 RMK A01 T00500025  RH  084%=      5-min Rain = 0
KWA1 191143Z 27004KT 05/03 A2998 RMK A01 T00500025  RH  084%=      5-min Rain = 0
KWA1 191144Z 27004KT 05/03 A2998 RMK A01 T00500025  RH  084%=      5-min Rain = 0
KWA1 191145Z 27004KT 05/03 A2998 RMK A01 T00500025  RH  084%=      5-min Rain = 0
KWA1 191146Z 27004KT 05/02 A2998 RMK A01 T00490024  RH  084%=      5-min Rain = 0
KWA1 191147Z 27005KT 05/02 A2998 RMK A01 T00490024  RH  084%=      5-min Rain = 0
KWA1 191148Z 27005KT 05/02 A2998 RMK A01 T00480024  RH  084%=      5-min Rain = 0
KWA1 191149Z 27004KT 05/02 A2998 RMK A01 T00480024  RH  085%=      5-min Rain = 0
KWA1 191150Z 27004KT 05/02 A2998 RMK A01 T00480024  RH  085%=      5-min Rain = 0
KWA1 191151Z 27004KT 05/02 A2998 RMK A01 T00480024  RH  085%=      5-min Rain = 0
KWA1 191152Z 27004KT 05/02 A2998 RMK A01 T00470024  RH  085%=      5-min Rain = 0
KWA1 191153Z 27004KT 05/03 A2998 RMK A01 T00470025  RH  085%=      5-min Rain = 0
KWA1 191154Z 27004KT 05/03 A2998 RMK A01 T00480025  RH  086%=      5-min Rain = 0
KWA1 191155Z 27004KT 05/03 A2998 RMK A01 T00480026  RH  086%=      5-min Rain = 0
KWA1 191156Z 27004KT 05/03 A2999 RMK A01 T00490026  RH  085%=      5-min Rain = 0
KWA1 191157Z 27004KT 05/03 A2999 RMK A01 T00490026  RH  085%=      5-min Rain = 0
KWA1 191158Z 27004KT 05/03 A2999 RMK A01 T00490025  RH  085%=      5-min Rain = 0
KWA1 191159Z 27004KT 05/03 A2999 RMK A01 T00490026  RH  085%=      5-min Rain = 0
KWA1 191200Z 27005KT 05/03 A2999 RMK A01 T00490026  RH  085%=      5-min Rain = 0
KWA1 191201Z 27005KT 05/03 A2999 RMK A01 T00510028  RH  085%=      5-min Rain = 0
KWA1 191202Z 27005KT 05/03 A2999 RMK A01 T00520028  RH  085%=      5-min Rain = 0
KWA1 191203Z 27005KT 05/03 A2999 RMK A01 T00540028  RH  084%=      5-min Rain = 0
KWA1 191204Z 27005KT 05/03 A2999 RMK A01 T00540028  RH  083%=      5-min Rain = 0
KWA1 191205Z 28005KT 06/03 A2999 RMK A01 T00550028  RH  083%=      5-min Rain = 0
KWA1 191206Z 27005KT 06/03 A2999 RMK A01 T00550028  RH  083%=      5-min Rain = 0
KWA1 191207Z 27005KT 06/03 A2999 RMK A01 T00560028  RH  082%=      5-min Rain = 0
KWA1 191208Z 28005KT 06/03 A2999 RMK A01 T00560028  RH  082%=      5-min Rain = 0
KWA1 191209Z 28004KT 06/03 A2999 RMK A01 T00560027  RH  082%=      5-min Rain = 0
KWA1 191210Z 28004KT 06/03 A2999 RMK A01 T00560027  RH  082%=      5-min Rain = 0
KWA1 191211Z 27004KT 06/03 A2999 RMK A01 T00560028  RH  082%=      5-min Rain = 0
KWA1 191212Z 28005KT 06/03 A2999 RMK A01 T00560028  RH  082%=      5-min Rain = 0
KWA1 191213Z 28005KT 06/03 A2999 RMK A01 T00560028  RH  082%=      5-min Rain = 0
KWA1 191214Z 28005KT 06/03 A2999 RMK A01 T00560029  RH  083%=      5-min Rain = 0
KWA1 191215Z 28006KT 06/03 A2999 RMK A01 T00580031  RH  083%=      5-min Rain = 0
KWA1 191216Z 28006KT 06/03 A2999 RMK A01 T00600032  RH  082%=      5-min Rain = 0
KWA1 191217Z 28006KT 06/03 A2999 RMK A01 T00610032  RH  082%=      5-min Rain = 0
KWA1 191218Z 28006KT 06/03 A2999 RMK A01 T00620032  RH  081%=      5-min Rain = 0
KWA1 191219Z 28006KT 06/03 A2999 RMK A01 T00620032  RH  081%=      5-min Rain = 0
KWA1 191220Z 28007KT 06/03 A2999 RMK A01 T00620032  RH  081%=      5-min Rain = 0
KWA1 191221Z 28007KT 06/03 A2999 RMK A01 T00620032  RH  081%=      5-min Rain = 0
KWA1 191222Z 28007KT 06/03 A2999 RMK A01 T00620031  RH  081%=      5-min Rain = 0
KWA1 191223Z 28007KT 06/03 A2999 RMK A01 T00620031  RH  081%=      5-min Rain = 0
KWA1 191224Z 28007KT 06/03 A2999 RMK A01 T00620031  RH  081%=      5-min Rain = 0
KWA1 191225Z 28007KT 06/03 A2999 RMK A01 T00620031  RH  081%=      5-min Rain = 0
KWA1 191226Z 28007KT 06/03 A2999 RMK A01 T00620031  RH  081%=      5-min Rain = 0
KWA1 191227Z 28007KT 06/03 A2999 RMK A01 T00620031  RH  081%=      5-min Rain = 0
KWA1 191228Z 28007KT 06/03 A2999 RMK A01 T00620031  RH  081%=      5-min Rain = 0
KWA1 191229Z 28007KT 06/03 A2999 RMK A01 T00620031  RH  081%=      5-min Rain = 0
KWA1 191230Z 28007KT 06/03 A2999 RMK A01 T00620031  RH  081%=      5-min Rain = 0
KWA1 191231Z 28007KT 06/03 A2999 RMK A01 T00620031  RH  081%=      5-min Rain = 0
KWA1 191232Z 28007KT 06/03 A2999 RMK A01 T00620031  RH  081%=      5-min Rain = 0
KWA1 191233Z 28007KT 06/03 A2999 RMK A01 T00610031  RH  081%=      5-min Rain = 0
KWA1 191234Z 28007KT 06/03 A2999 RMK A01 T00610031  RH  081%=      5-min Rain = 0
KWA1 191235Z 28007KT 06/03 A2999 RMK A01 T00610031  RH  081%=      5-min Rain = 0
KWA1 191236Z 28007KT 06/03 A2999 RMK A01 T00610031  RH  081%=      5-min Rain = 0
KWA1 191237Z 28008KT 06/03 A2999 RMK A01 T00600031  RH  081%=      5-min Rain = 0
KWA1 191238Z 28007KT 06/03 A2999 RMK A01 T00600031  RH  081%=      5-min Rain = 0
KWA1 191239Z 28007KT 06/03 A2999 RMK A01 T00600031  RH  081%=      5-min Rain = 0
KWA1 191240Z 28007KT 06/03 A2999 RMK A01 T00600031  RH  081%=      5-min Rain = 0
KWA1 191241Z 28007KT 06/03 A2999 RMK A01 T00600031  RH  082%=      5-min Rain = 0
KWA1 191242Z 28007KT 06/03 A2999 RMK A01 T00590030  RH  082%=      5-min Rain = 0
KWA1 191243Z 28007KT 06/03 A2999 RMK A01 T00590031  RH  082%=      5-min Rain = 0
KWA1 191244Z 28007KT 06/03 A2999 RMK A01 T00590031  RH  082%=      5-min Rain = 0
KWA1 191245Z 28008KT 06/03 A2999 RMK A01 T00590031  RH  082%=      5-min Rain = 0
KWA1 191246Z 28008KT 06/03 A2999 RMK A01 T00590031  RH  082%=      5-min Rain = 0
KWA1 191247Z 28008KT 06/03 A2999 RMK A01 T00590031  RH  082%=      5-min Rain = 0
KWA1 191248Z 28007KT 06/03 A2999 RMK A01 T00590031  RH  082%=      5-min Rain = 0
KWA1 191249Z 28007KT 06/03 A2999 RMK A01 T00600032  RH  082%=      5-min Rain = 0
KWA1 191250Z 28007KT 06/03 A2999 RMK A01 T00600032  RH  082%=      5-min Rain = 0
KWA1 191251Z 28007KT 06/03 A2999 RMK A01 T00600032  RH  082%=      5-min Rain = 0
KWA1 191252Z 28008KT 06/03 A2999 RMK A01 T00600032  RH  082%=      5-min Rain = 0
KWA1 191253Z 28007KT 06/03 A2999 RMK A01 T00610032  RH  082%=      5-min Rain = 0
KWA1 191254Z 28008KT 06/03 A2999 RMK A01 T00610033  RH  082%=      5-min Rain = 0
KWA1 191255Z 28008KT 06/03 A2999 RMK A01 T00610033  RH  082%=      5-min Rain = 0
KWA1 191256Z 28008KT 06/03 A2999 RMK A01 T00610033  RH  082%=      5-min Rain = 0
KWA1 191257Z 28008KT 06/03 A2999 RMK A01 T00620033  RH  082%=      5-min Rain = 0
KWA1 191258Z 28008KT 06/03 A2999 RMK A01 T00620033  RH  082%=      5-min Rain = 0
KWA1 191259Z 28007KT 06/03 A2999 RMK A01 T00620033  RH  082%=      5-min Rain = 0
KWA1 191300Z 28007KT 06/03 A2999 RMK A01 T00620034  RH  082%=      5-min Rain = 0
KWA1 191301Z 28008KT 06/03 A2999 RMK A01 T00630034  RH  082%=      5-min Rain = 0
KWA1 191302Z 28008KT 06/03 A2999 RMK A01 T00630034  RH  082%=      5-min Rain = 0
KWA1 191303Z 28008KT 06/03 A2999 RMK A01 T00630034  RH  082%=      5-min Rain = 0
KWA1 191304Z 28008KT 06/04 A2999 RMK A01 T00640035  RH  082%=      5-min Rain = 0
KWA1 191305Z 28008KT 07/04 A2999 RMK A01 T00650036  RH  082%=      5-min Rain = 0
KWA1 191306Z 28007KT 07/04 A2999 RMK A01 T00650035  RH  081%=      5-min Rain = 0
KWA1 191307Z 28007KT 07/04 A2999 RMK A01 T00650035  RH  081%=      5-min Rain = 0
KWA1 191308Z 28007KT 07/04 A2999 RMK A01 T00650036  RH  081%=      5-min Rain = 0
KWA1 191309Z 28007KT 07/04 A2999 RMK A01 T00660036  RH  081%=      5-min Rain = 0
KWA1 191310Z 28007KT 07/04 A30 RMK A01 T00650035  RH  081%=      5-min Rain = 0
KWA1 191311Z 28007KT 07/04 A30 RMK A01 T00650035  RH  081%=      5-min Rain = 0
KWA1 191312Z 28006KT 07/04 A30 RMK A01 T00650035  RH  081%=      5-min Rain = 0
KWA1 191313Z 28007KT 07/04 A30 RMK A01 T00650035  RH  081%=      5-min Rain = 0
KWA1 191314Z 28006KT 07/04 A30 RMK A01 T00650036  RH  081%=      5-min Rain = 0
KWA1 191315Z 29006KT 07/04 A30 RMK A01 T00650036  RH  081%=      5-min Rain = 0
KWA1 191316Z 29007KT 07/04 A30 RMK A01 T00650035  RH  081%=      5-min Rain = 0
KWA1 191317Z 29007KT 07/04 A30 RMK A01 T00650036  RH  082%=      5-min Rain = 0
KWA1 191318Z 29007KT 07/04 A30 RMK A01 T00650036  RH  082%=      5-min Rain = 0
KWA1 191319Z 28007KT 07/04 A30 RMK A01 T00650035  RH  081%=      5-min Rain = 0
KWA1 191320Z 29007KT 07/04 A30 RMK A01 T00660035  RH  081%=      5-min Rain = 0
KWA1 191321Z 29007KT 07/03 A30 RMK A01 T00660034  RH  080%=      5-min Rain = 0
KWA1 191322Z 28006KT 07/03 A30 RMK A01 T00650033  RH  080%=      5-min Rain = 0
KWA1 191323Z 29005KT 06/03 A30 RMK A01 T00640033  RH  081%=      5-min Rain = 0
KWA1 191324Z 29006KT 06/03 A30 RMK A01 T00630033  RH  081%=      5-min Rain = 0
KWA1 191325Z 29006KT 06/03 A30 RMK A01 T00630033  RH  081%=      5-min Rain = 0
KWA1 191326Z 29006KT 06/03 A30 RMK A01 T00630032  RH  081%=      5-min Rain = 0
KWA1 191327Z 29006KT 06/03 A30 RMK A01 T00630033  RH  081%=      5-min Rain = 0
KWA1 191328Z 29005KT 06/03 A30 RMK A01 T00630032  RH  081%=      5-min Rain = 0
KWA1 191329Z 29005KT 06/03 A30 RMK A01 T00630033  RH  081%=      5-min Rain = 0
KWA1 191330Z 29005KT 06/03 A30 RMK A01 T00630033  RH  081%=      5-min Rain = 0
KWA1 191331Z 29005KT 06/03 A30 RMK A01 T00630033  RH  081%=      5-min Rain = 0
KWA1 191332Z 30005KT 06/03 A30 RMK A01 T00630032  RH  081%=      5-min Rain = 0
KWA1 191333Z 29005KT 06/03 A30 RMK A01 T00630032  RH  080%=      5-min Rain = 0
KWA1 191334Z 29005KT 06/03 A30 RMK A01 T00630031  RH  080%=      5-min Rain = 0
KWA1 191335Z 29005KT 06/03 A30 RMK A01 T00630031  RH  080%=      5-min Rain = 0
KWA1 191336Z 29004KT 06/03 A30 RMK A01 T00630031  RH  080%=      5-min Rain = 0
KWA1 191337Z 29004KT 06/03 A30 RMK A01 T00620031  RH  080%=      5-min Rain = 0
KWA1 191338Z 29004KT 06/03 A30 RMK A01 T00620030  RH  080%=      5-min Rain = 0
KWA1 191339Z 29004KT 06/03 A30 RMK A01 T00610030  RH  081%=      5-min Rain = 0
KWA1 191340Z 29004KT 06/03 A30 RMK A01 T00610030  RH  081%=      5-min Rain = 0
KWA1 191341Z 29003KT 06/03 A30 RMK A01 T00600030  RH  081%=      5-min Rain = 0
KWA1 191342Z 29003KT 06/03 A30 RMK A01 T00600029  RH  081%=      5-min Rain = 0
KWA1 191343Z 29003KT 06/03 A30 RMK A01 T00590029  RH  081%=      5-min Rain = 0
KWA1 191344Z 29003KT 06/03 A30 RMK A01 T00590029  RH  081%=      5-min Rain = 0
KWA1 191345Z 29003KT 06/03 A30 RMK A01 T00590029  RH  081%=      5-min Rain = 0
KWA1 191346Z 29003KT 06/03 A30 RMK A01 T00580029  RH  082%=      5-min Rain = 0
KWA1 191347Z 29002KT 06/03 A3001 RMK A01 T00580029  RH  082%=      5-min Rain = 0
KWA1 191348Z 29002KT 06/03 A30 RMK A01 T00580029  RH  082%=      5-min Rain = 0
KWA1 191349Z 29002KT 06/03 A3001 RMK A01 T00580029  RH  082%=      5-min Rain = 0
KWA1 191350Z 30002KT 06/03 A30 RMK A01 T00590030  RH  082%=      5-min Rain = 0
KWA1 191351Z 30002KT 06/03 A30 RMK A01 T00600032  RH  082%=      5-min Rain = 0
KWA1 191352Z 31001KT 06/03 A30 RMK A01 T00620032  RH  081%=      5-min Rain = 0
KWA1 191353Z 30001KT 06/03 A30 RMK A01 T00630032  RH  081%=      5-min Rain = 0
KWA1 191354Z 29001KT 06/03 A30 RMK A01 T00640032  RH  080%=      5-min Rain = 0
KWA1 191355Z 29001KT 07/03 A30 RMK A01 T00650032  RH  080%=      5-min Rain = 0
KWA1 191356Z 29001KT 07/03 A30 RMK A01 T00650032  RH  079%=      5-min Rain = 0
KWA1 191357Z 29001KT 07/03 A30 RMK A01 T00650032  RH  079%=      5-min Rain = 0
KWA1 191358Z 28002KT 07/03 A30 RMK A01 T00650031  RH  079%=      5-min Rain = 0
KWA1 191359Z 29002KT 07/03 A30 RMK A01 T00650032  RH  079%=      5-min Rain = 0
KWA1 191400Z 29003KT 07/03 A30 RMK A01 T00650032  RH  079%=      5-min Rain = 0
KWA1 191401Z 29003KT 07/03 A30 RMK A01 T00660033  RH  080%=      5-min Rain = 0
KWA1 191402Z 29003KT 07/03 A30 RMK A01 T00660033  RH  079%=      5-min Rain = 0
KWA1 191403Z 29003KT 07/03 A30 RMK A01 T00660033  RH  079%=      5-min Rain = 0
KWA1 191404Z 29003KT 07/03 A30 RMK A01 T00670034  RH  079%=      5-min Rain = 0
KWA1 191405Z 28003KT 07/03 A30 RMK A01 T00680034  RH  079%=      5-min Rain = 0
KWA1 191406Z 29003KT 07/04 A3001 RMK A01 T00690036  RH  079%=      5-min Rain = 0
KWA1 191407Z 28003KT 07/04 A3001 RMK A01 T00700036  RH  079%=      5-min Rain = 0
KWA1 191408Z 28003KT 07/04 A3001 RMK A01 T00710037  RH  079%=      5-min Rain = 0
KWA1 191409Z 29002KT 07/04 A3001 RMK A01 T00720038  RH  079%=      5-min Rain = 0
KWA1 191410Z 28003KT 07/04 A3001 RMK A01 T00730038  RH  079%=      5-min Rain = 0
KWA1 191411Z 28002KT 07/04 A3001 RMK A01 T00740039  RH  078%=      5-min Rain = 0
KWA1 191412Z 28003KT 08/04 A3001 RMK A01 T00760040  RH  078%=      5-min Rain = 0
KWA1 191413Z 28003KT 08/04 A3001 RMK A01 T00770041  RH  078%=      5-min Rain = 0
KWA1 191414Z 28002KT 08/04 A3001 RMK A01 T00790042  RH  078%=      5-min Rain = 0
KWA1 191415Z 28002KT 08/04 A3001 RMK A01 T00800042  RH  077%=      5-min Rain = 0
KWA1 191416Z 28002KT 08/04 A3001 RMK A01 T00820044  RH  077%=      5-min Rain = 0
KWA1 191417Z 28002KT 08/04 A3001 RMK A01 T00830043  RH  076%=      5-min Rain = 0
KWA1 191418Z 27002KT 09/04 A3001 RMK A01 T00850044  RH  075%=      5-min Rain = 0
KWA1 191419Z 28003KT 09/04 A3001 RMK A01 T00860044  RH  075%=      5-min Rain = 0
KWA1 191420Z 28002KT 09/04 A3001 RMK A01 T00870044  RH  074%=      5-min Rain = 0
KWA1 191421Z 28001KT 09/05 A3001 RMK A01 T00890045  RH  074%=      5-min Rain = 0
KWA1 191422Z 29001KT 09/05 A3001 RMK A01 T00900046  RH  074%=      5-min Rain = 0
KWA1 191423Z 28001KT 09/05 A3001 RMK A01 T00910046  RH  073%=      5-min Rain = 0
KWA1 191424Z 28001KT 09/05 A3001 RMK A01 T00920046  RH  073%=      5-min Rain = 0
KWA1 191425Z 29001KT 09/05 A3001 RMK A01 T00940047  RH  073%=      5-min Rain = 0
KWA1 191426Z 28002KT 10/05 A3001 RMK A01 T00950047  RH  072%=      5-min Rain = 0
KWA1 191427Z 29002KT 10/05 A3001 RMK A01 T00960048  RH  072%=      5-min Rain = 0
KWA1 191428Z 28002KT 10/05 A3001 RMK A01 T00980050  RH  072%=      5-min Rain = 0
KWA1 191429Z 28002KT 10/05 A3001 RMK A01 T01000050  RH  071%=      5-min Rain = 0
KWA1 191430Z 27003KT 10/05 A3001 RMK A01 T01010048  RH  070%=      5-min Rain = 0
KWA1 191431Z 28002KT 10/05 A3001 RMK A01 T01010049  RH  070%=      5-min Rain = 0
KWA1 191432Z 28002KT 10/05 A3001 RMK A01 T01020051  RH  070%=      5-min Rain = 0
KWA1 191433Z 27003KT 10/05 A3001 RMK A01 T01030050  RH  070%=      5-min Rain = 0
KWA1 191434Z 27002KT 10/05 A3001 RMK A01 T01030051  RH  070%=      5-min Rain = 0
KWA1 191435Z 27003KT 10/05 A3001 RMK A01 T01040052  RH  070%=      5-min Rain = 0
KWA1 191436Z 25002KT 11/05 A3001 RMK A01 T01050053  RH  070%=      5-min Rain = 0
KWA1 191437Z 26003KT 11/05 A3001 RMK A01 T01060052  RH  069%=      5-min Rain = 0
KWA1 191438Z 26003KT 11/05 A3001 RMK A01 T01070051  RH  069%=      5-min Rain = 0
KWA1 191439Z 26002KT 11/05 A3001 RMK A01 T01070052  RH  069%=      5-min Rain = 0
KWA1 191440Z 25003KT 11/05 A3001 RMK A01 T01090053  RH  069%=      5-min Rain = 0
KWA1 191441Z 26003KT 11/05 A3001 RMK A01 T01090052  RH  068%=      5-min Rain = 0
KWA1 191442Z 26002KT 11/05 A3001 RMK A01 T01100052  RH  068%=      5-min Rain = 0
KWA1 191443Z 26002KT 11/05 A3001 RMK A01 T01100053  RH  068%=      5-min Rain = 0
KWA1 191444Z 25001KT 11/06 A3001 RMK A01 T01120055  RH  068%=      5-min Rain = 0
KWA1 191445Z 25001KT 11/06 A3001 RMK A01 T01130056  RH  068%=      5-min Rain = 0
KWA1 191446Z 26001KT 11/06 A3001 RMK A01 T01140055  RH  067%=      5-min Rain = 0
KWA1 191447Z 25002KT 12/06 A3001 RMK A01 T01160056  RH  067%=      5-min Rain = 0
KWA1 191448Z 25002KT 12/06 A3001 RMK A01 T01170057  RH  067%=      5-min Rain = 0
KWA1 191449Z 24003KT 12/06 A3001 RMK A01 T01180058  RH  066%=      5-min Rain = 0
KWA1 191450Z 24003KT 12/06 A3001 RMK A01 T01190056  RH  066%=      5-min Rain = 0
KWA1 191451Z 24003KT 12/06 A3001 RMK A01 T01190059  RH  067%=      5-min Rain = 0
KWA1 191452Z 24003KT 12/06 A3001 RMK A01 T01210059  RH  066%=      5-min Rain = 0
KWA1 191453Z 24002KT 12/06 A3001 RMK A01 T01210059  RH  066%=      5-min Rain = 0
KWA1 191454Z 25002KT 12/06 A3001 RMK A01 T01220059  RH  065%=      5-min Rain = 0
KWA1 191455Z 24003KT 12/06 A3001 RMK A01 T01220059  RH  065%=      5-min Rain = 0
KWA1 191456Z 24003KT 12/06 A3001 RMK A01 T01220059  RH  065%=      5-min Rain = 0
KWA1 191457Z 24003KT 12/06 A3001 RMK A01 T01230060  RH  066%=      5-min Rain = 0
KWA1 191458Z 25003KT 12/06 A3001 RMK A01 T01230060  RH  065%=      5-min Rain = 0
KWA1 191459Z 25003KT 13/06 A3001 RMK A01 T01250062  RH  066%=      5-min Rain = 0
KWA1 191500Z 25004KT 13/06 A3001 RMK A01 T01260063  RH  065%=      5-min Rain = 0
KWA1 191501Z 25003KT 13/06 A3001 RMK A01 T01270063  RH  065%=      5-min Rain = 0
KWA1 191502Z 24003KT 13/07 A3001 RMK A01 T01290065  RH  065%=      5-min Rain = 0
KWA1 191503Z 24003KT 13/06 A3001 RMK A01 T01290064  RH  064%=      5-min Rain = 0
KWA1 191504Z 24003KT 13/06 A3001 RMK A01 T01300064  RH  064%=      5-min Rain = 0
KWA1 191505Z 24003KT 13/06 A3001 RMK A01 T01300063  RH  064%=      5-min Rain = 0
KWA1 191506Z 24003KT 13/07 A3001 RMK A01 T01300065  RH  064%=      5-min Rain = 0
KWA1 191507Z 23003KT 13/07 A3001 RMK A01 T01310065  RH  064%=      5-min Rain = 0
KWA1 191508Z 23004KT 13/07 A3001 RMK A01 T01320065  RH  064%=      5-min Rain = 0
KWA1 191509Z 23004KT 13/07 A3001 RMK A01 T01330066  RH  064%=      5-min Rain = 0
KWA1 191510Z 24004KT 13/07 A3001 RMK A01 T01330065  RH  063%=      5-min Rain = 0
KWA1 191511Z 23004KT 13/07 A3001 RMK A01 T01330065  RH  063%=      5-min Rain = 0
KWA1 191512Z 24004KT 13/07 A3001 RMK A01 T01320065  RH  064%=      5-min Rain = 0
KWA1 191513Z 24003KT 13/07 A3001 RMK A01 T01330066  RH  064%=      5-min Rain = 0
KWA1 191514Z 23003KT 13/07 A3001 RMK A01 T01330065  RH  063%=      5-min Rain = 0
KWA1 191515Z 23003KT 13/07 A3001 RMK A01 T01340067  RH  064%=      5-min Rain = 0
KWA1 191516Z 22003KT 14/07 A3001 RMK A01 T01360068  RH  064%=      5-min Rain = 0
KWA1 191517Z 23003KT 14/07 A3001 RMK A01 T01370067  RH  063%=      5-min Rain = 0
KWA1 191518Z 24003KT 14/07 A3001 RMK A01 T01370067  RH  063%=      5-min Rain = 0
KWA1 191519Z 24004KT 14/07 A3001 RMK A01 T01370066  RH  062%=      5-min Rain = 0
KWA1 191520Z 24004KT 14/07 A3001 RMK A01 T01360067  RH  063%=      5-min Rain = 0
KWA1 191521Z 24004KT 14/07 A3001 RMK A01 T01360067  RH  063%=      5-min Rain = 0
KWA1 191522Z 24004KT 14/07 A3001 RMK A01 T01370067  RH  063%=      5-min Rain = 0
KWA1 191523Z 24005KT 14/07 A3001 RMK A01 T01370068  RH  063%=      5-min Rain = 0
KWA1 191524Z 24004KT 14/07 A3001 RMK A01 T01380069  RH  063%=      5-min Rain = 0
KWA1 191525Z 23004KT 14/07 A3001 RMK A01 T01400070  RH  063%=      5-min Rain = 0
KWA1 191526Z 23003KT 14/07 A3001 RMK A01 T01410069  RH  062%=      5-min Rain = 0
KWA1 191527Z 23004KT 14/07 A3001 RMK A01 T01430071  RH  062%=      5-min Rain = 0
KWA1 191528Z 24005KT 14/07 A3001 RMK A01 T01440070  RH  061%=      5-min Rain = 0
KWA1 191529Z 23005KT 14/07 A3001 RMK A01 T01430070  RH  061%=      5-min Rain = 0
KWA1 191530Z 22005KT 14/07 A3001 RMK A01 T01440071  RH  061%=      5-min Rain = 0
KWA1 191531Z 22005KT 14/07 A3001 RMK A01 T01440071  RH  062%=      5-min Rain = 0
KWA1 191532Z 24004KT 15/07 A3001 RMK A01 T01460073  RH  062%=      5-min Rain = 0
KWA1 191533Z 23004KT 15/07 A3001 RMK A01 T01470073  RH  061%=      5-min Rain = 0
KWA1 191534Z 23004KT 15/07 A3001 RMK A01 T01480074  RH  061%=      5-min Rain = 0
KWA1 191535Z 25005KT 15/07 A3001 RMK A01 T01490074  RH  060%=      5-min Rain = 0
KWA1 191536Z 23005KT 15/07 A3001 RMK A01 T01500074  RH  061%=      5-min Rain = 0
KWA1 191537Z 23005KT 15/07 A3001 RMK A01 T01510074  RH  060%=      5-min Rain = 0
KWA1 191538Z 23005KT 15/08 A3001 RMK A01 T01510075  RH  060%=      5-min Rain = 0
KWA1 191539Z 23005KT 15/08 A3001 RMK A01 T01520075  RH  060%=      5-min Rain = 0
KWA1 191540Z 24005KT 15/08 A3001 RMK A01 T01530076  RH  060%=      5-min Rain = 0
KWA1 191541Z 23006KT 15/08 A3001 RMK A01 T01540076  RH  060%=      5-min Rain = 0
KWA1 191542Z 22005KT 16/08 A3001 RMK A01 T01560078  RH  060%=      5-min Rain = 0
KWA1 191543Z 22005KT 16/08 A3001 RMK A01 T01570077  RH  059%=      5-min Rain = 0
KWA1 191544Z 22005KT 16/08 A3001 RMK A01 T01590078  RH  059%=      5-min Rain = 0
KWA1 191545Z 21004KT 16/08 A3001 RMK A01 T01600080  RH  059%=      5-min Rain = 0
KWA1 191546Z 23006KT 16/08 A3001 RMK A01 T01620079  RH  058%=      5-min Rain = 0
KWA1 191547Z 22005KT 16/08 A3001 RMK A01 T01610077  RH  057%=      5-min Rain = 0
KWA1 191548Z 23005KT 16/08 A3001 RMK A01 T01610078  RH  058%=      5-min Rain = 0
KWA1 191549Z 20004KT 16/08 A3001 RMK A01 T01610079  RH  058%=      5-min Rain = 0
KWA1 191550Z 22003KT 16/08 A3001 RMK A01 T01630079  RH  058%=      5-min Rain = 0
KWA1 191551Z 21004KT 16/08 A3002 RMK A01 T01640081  RH  058%=      5-min Rain = 0
KWA1 191552Z 23004KT 17/08 A3002 RMK A01 T01650080  RH  057%=      5-min Rain = 0
KWA1 191553Z 22004KT 17/08 A3002 RMK A01 T01650080  RH  057%=      5-min Rain = 0
KWA1 191554Z 22004KT 17/08 A3002 RMK A01 T01670083  RH  058%=      5-min Rain = 0
KWA1 191555Z 22004KT 17/08 A3001 RMK A01 T01690084  RH  057%=      5-min Rain = 0
KWA1 191556Z 22005KT 17/08 A3001 RMK A01 T01720084  RH  056%=      5-min Rain = 0
KWA1 191557Z 21006KT 17/08 A3001 RMK A01 T01740083  RH  055%=      5-min Rain = 0
KWA1 191558Z 23005KT 18/08 A3001 RMK A01 T01750083  RH  055%=      5-min Rain = 0
KWA1 191559Z 21005KT 18/08 A3001 RMK A01 T01750084  RH  055%=      5-min Rain = 0
KWA1 191600Z 21007KT 18/09 A3001 RMK A01 T01770085  RH  055%=      5-min Rain = 0
KWA1 191601Z 23006KT 18/09 A3001 RMK A01 T01790086  RH  054%=      5-min Rain = 0
KWA1 191602Z 22005KT 18/09 A3001 RMK A01 T01810086  RH  054%=      5-min Rain = 0
KWA1 191603Z 21004KT 18/09 A3001 RMK A01 T01830089  RH  054%=      5-min Rain = 0
KWA1 191604Z 19005KT 19/09 A3001 RMK A01 T01860091  RH  054%=      5-min Rain = 0
KWA1 191605Z 20006KT 19/09 A3001 RMK A01 T01880089  RH  053%=      5-min Rain = 0
KWA1 191606Z 21004KT 19/09 A3001 RMK A01 T01880088  RH  052%=      5-min Rain = 0
KWA1 191607Z 21004KT 19/09 A3001 RMK A01 T01880087  RH  052%=      5-min Rain = 0
KWA1 191608Z 22004KT 19/09 A3001 RMK A01 T01880088  RH  052%=      5-min Rain = 0
KWA1 191609Z 22006KT 19/09 A3001 RMK A01 T01910092  RH  053%=      5-min Rain = 0
KWA1 191610Z 22008KT 20/09 A3001 RMK A01 T01960092  RH  051%=      5-min Rain = 0
KWA1 191611Z 22009KT 20/09 A3001 RMK A01 T01990089  RH  049%=      5-min Rain = 0
KWA1 191612Z 22008KT 20/09 A3001 RMK A01 T02010089  RH  048%=      5-min Rain = 0
KWA1 191613Z 21008KT 20/09 A3001 RMK A01 T02030090  RH  048%=      5-min Rain = 0
KWA1 191614Z 22009KT 21/09 A3001 RMK A01 T02050088  RH  047%=      5-min Rain = 0
KWA1 191615Z 22007KT 21/09 A3001 RMK A01 T02050089  RH  047%=      5-min Rain = 0
KWA1 191616Z 22008KT 21/09 A3001 RMK A01 T02070091  RH  047%=      5-min Rain = 0
KWA1 191617Z 22008KT 21/09 A3001 RMK A01 T02090089  RH  046%=      5-min Rain = 0
KWA1 191618Z 21009KT 21/09 A3001 RMK A01 T02090088  RH  046%=      5-min Rain = 0
KWA1 191619Z 22008KT 21/09 A3001 RMK A01 T02090089  RH  046%=      5-min Rain = 0
KWA1 191620Z 22009KT 21/09 A3001 RMK A01 T02100089  RH  046%=      5-min Rain = 0
KWA1 191621Z 21008KT 21/09 A3001 RMK A01 T02100086  RH  045%=      5-min Rain = 0
KWA1 191622Z 22007KT 21/09 A30 RMK A01 T02100088  RH  045%=      5-min Rain = 0
KWA1 191623Z 23009KT 21/09 A30 RMK A01 T02120088  RH  045%=      5-min Rain = 0
KWA1 191624Z 22009KT 21/09 A30 RMK A01 T02130086  RH  044%=      5-min Rain = 0
KWA1 191625Z 22009KT 21/09 A30 RMK A01 T02130087  RH  044%=      5-min Rain = 0
KWA1 191626Z 21007KT 21/09 A30 RMK A01 T02130088  RH  045%=      5-min Rain = 0
KWA1 191627Z 21010KT 22/09 A3001 RMK A01 T02150087  RH  044%=      5-min Rain = 0
KWA1 191628Z 21008KT 22/09 A3001 RMK A01 T02160086  RH  043%=      5-min Rain = 0
KWA1 191629Z 21008KT 22/09 A3001 RMK A01 T02150088  RH  044%=      5-min Rain = 0
KWA1 191630Z 20009KT 22/09 A30 RMK A01 T02170086  RH  043%=      5-min Rain = 0
KWA1 191631Z 21009KT 22/09 A30 RMK A01 T02170087  RH  043%=      5-min Rain = 0
KWA1 191632Z 22010KT 22/09 A30 RMK A01 T02170085  RH  043%=      5-min Rain = 0
KWA1 191633Z 22009KT 22/09 A30 RMK A01 T02170086  RH  043%=      5-min Rain = 0
KWA1 191634Z 23008KT 22/09 A30 RMK A01 T02170086  RH  043%=      5-min Rain = 0
KWA1 191635Z 21008KT 22/09 A30 RMK A01 T02170087  RH  043%=      5-min Rain = 0
KWA1 191636Z 23008KT 22/09 A30 RMK A01 T02180086  RH  043%=      5-min Rain = 0
KWA1 191637Z 23008KT 22/09 A30 RMK A01 T02180087  RH  043%=      5-min Rain = 0
KWA1 191638Z 23009KT 22/09 A30 RMK A01 T02190086  RH  043%=      5-min Rain = 0
KWA1 191639Z 22009KT 22/09 A30 RMK A01 T02190087  RH  043%=      5-min Rain = 0
KWA1 191640Z 23008KT 22/09 A30 RMK A01 T02190085  RH  042%=      5-min Rain = 0
KWA1 191641Z 23006KT 22/09 A30 RMK A01 T02190085  RH  042%=      5-min Rain = 0
KWA1 191642Z 22008KT 22/09 A30 RMK A01 T02190087  RH  043%=      5-min Rain = 0
KWA1 191643Z 21010KT 22/09 A30 RMK A01 T02220089  RH  042%=      5-min Rain = 0
KWA1 191644Z 21010KT 22/08 A30 RMK A01 T02230084  RH  041%=      5-min Rain = 0
KWA1 191645Z 21008KT 22/09 A30 RMK A01 T02230085  RH  041%=      5-min Rain = 0
KWA1 191646Z 21009KT 23/09 A30 RMK A01 T02250085  RH  041%=      5-min Rain = 0
KWA1 191647Z 22010KT 23/08 A30 RMK A01 T02250084  RH  040%=      5-min Rain = 0
KWA1 191648Z 22010KT 23/08 A30 RMK A01 T02250084  RH  041%=      5-min Rain = 0
KWA1 191649Z 21009KT 23/08 A30 RMK A01 T02250084  RH  040%=      5-min Rain = 0
KWA1 191650Z 21009KT 23/08 A30 RMK A01 T02260084  RH  040%=      5-min Rain = 0
KWA1 191651Z 22009KT 23/08 A30 RMK A01 T02250083  RH  040%=      5-min Rain = 0
KWA1 191652Z 22010KT 22/08 A30 RMK A01 T02240082  RH  040%=      5-min Rain = 0
KWA1 191653Z 22010KT 22/08 A30 RMK A01 T02240083  RH  040%=      5-min Rain = 0
KWA1 191654Z 21009KT 22/08 A30 RMK A01 T02240083  RH  040%=      5-min Rain = 0
KWA1 191655Z 22009KT 23/08 A30 RMK A01 T02250083  RH  040%=      5-min Rain = 0
KWA1 191656Z 21009KT 23/08 A30 RMK A01 T02250084  RH  040%=      5-min Rain = 0
KWA1 191657Z 21008KT 23/08 A30 RMK A01 T02270084  RH  040%=      5-min Rain = 0
KWA1 191658Z 20009KT 23/09 A30 RMK A01 T02280087  RH  041%=      5-min Rain = 0
KWA1 191659Z 22009KT 23/09 A30 RMK A01 T02290086  RH  040%=      5-min Rain = 0
KWA1 191700Z 22009KT 23/09 A30 RMK A01 T02300087  RH  040%=      5-min Rain = 0
KWA1 191701Z 22011KT 23/09 A30 RMK A01 T02310086  RH  039%=      5-min Rain = 0
KWA1 191702Z 21011KT 23/09 A30 RMK A01 T02310085  RH  039%=      5-min Rain = 0
KWA1 191703Z 20009KT 23/09 A30 RMK A01 T02310087  RH  040%=      5-min Rain = 0
KWA1 191704Z 21008KT 23/09 A30 RMK A01 T02330088  RH  040%=      5-min Rain = 0
KWA1 191705Z 20010KT 24/09 A30 RMK A01 T02350088  RH  039%=      5-min Rain = 0
KWA1 191706Z 20009KT 24/09 A30 RMK A01 T02350085  RH  038%=      5-min Rain = 0
KWA1 191707Z 19009KT 23/09 A30 RMK A01 T02330085  RH  039%=      5-min Rain = 0
KWA1 191708Z 18010KT 23/08 A30 RMK A01 T02330084  RH  038%=      5-min Rain = 0
KWA1 191709Z 18011KT 23/08 A2999 RMK A01 T02330083  RH  038%=      5-min Rain = 0
KWA1 191710Z 18010KT 23/08 A2999 RMK A01 T02330084  RH  039%=      5-min Rain = 0
KWA1 191711Z 19007KT 23/08 A2999 RMK A01 T02340084  RH  038%=      5-min Rain = 0
KWA1 191712Z 18011KT 23/08 A2999 RMK A01 T02340084  RH  038%=      5-min Rain = 0
KWA1 191713Z 19011KT 24/08 A2999 RMK A01 T02350080  RH  037%=      5-min Rain = 0
KWA1 191714Z 20011KT 24/08 A2999 RMK A01 T02350078  RH  037%=      5-min Rain = 0
KWA1 191715Z 19010KT 24/08 A2999 RMK A01 T02350078  RH  037%=      5-min Rain = 0
KWA1 191716Z 18009KT 24/08 A2999 RMK A01 T02350081  RH  037%=      5-min Rain = 0
KWA1 191717Z 18011KT 24/08 A2999 RMK A01 T02360082  RH  037%=      5-min Rain = 0
KWA1 191718Z 18008KT 24/08 A2999 RMK A01 T02350083  RH  038%=      5-min Rain = 0
KWA1 191719Z 18011G16KT 24/08 A2999 RMK A01 T02370082  RH  037%=      5-min Rain = 0
KWA1 191720Z 19011KT 24/08 A2999 RMK A01 T02380080  RH  036%=      5-min Rain = 0
KWA1 191721Z 18009KT 24/08 A2999 RMK A01 T02370079  RH  036%=      5-min Rain = 0
KWA1 191722Z 20008KT 24/08 A2999 RMK A01 T02380082  RH  037%=      5-min Rain = 0
KWA1 191723Z 20010KT 24/08 A2998 RMK A01 T02410081  RH  036%=      5-min Rain = 0
KWA1 191724Z 20011KT 24/08 A2998 RMK A01 T02430079  RH  035%=      5-min Rain = 0
KWA1 191725Z 20012KT 24/08 A2998 RMK A01 T02420076  RH  035%=      5-min Rain = 0
KWA1 191726Z 20011KT 24/08 A2998 RMK A01 T02390076  RH  035%=      5-min Rain = 0
KWA1 191727Z 20009KT 24/08 A2998 RMK A01 T02370076  RH  036%=      5-min Rain = 0
KWA1 191728Z 20011KT 24/08 A2998 RMK A01 T02370077  RH  036%=      5-min Rain = 0
KWA1 191729Z 21009KT 24/08 A2998 RMK A01 T02380078  RH  036%=      5-min Rain = 0
KWA1 191730Z 21008KT 24/08 A2998 RMK A01 T02390078  RH  036%=      5-min Rain = 0
KWA1 191731Z 18010KT 24/08 A2998 RMK A01 T02400080  RH  036%=      5-min Rain = 0
KWA1 191732Z 19009KT 24/08 A2998 RMK A01 T02410079  RH  036%=      5-min Rain = 0
KWA1 191733Z 17008KT 24/08 A2998 RMK A01 T02410078  RH  035%=      5-min Rain = 0
KWA1 191734Z 17011KT 24/08 A2998 RMK A01 T02440080  RH  035%=      5-min Rain = 0
KWA1 191735Z 17012KT 25/08 A2998 RMK A01 T02470076  RH  034%=      5-min Rain = 0
KWA1 191736Z 16010KT 25/08 A2998 RMK A01 T02480079  RH  034%=      5-min Rain = 0
KWA1 191737Z 17013KT 25/08 A2998 RMK A01 T02510078  RH  033%=      5-min Rain = 0
KWA1 191738Z 18011KT 25/08 A2998 RMK A01 T02510075  RH  033%=      5-min Rain = 0
KWA1 191739Z 17012KT 25/07 A2998 RMK A01 T02500072  RH  032%=      5-min Rain = 0
KWA1 191740Z 18011KT 25/07 A2998 RMK A01 T02490074  RH  033%=      5-min Rain = 0
KWA1 191741Z 19013KT 25/07 A2998 RMK A01 T02480073  RH  033%=      5-min Rain = 0
KWA1 191742Z 20012KT 25/07 A2998 RMK A01 T02460071  RH  032%=      5-min Rain = 0
KWA1 191743Z 18011KT 25/07 A2998 RMK A01 T02460074  RH  033%=      5-min Rain = 0
KWA1 191744Z 18012KT 25/08 A2998 RMK A01 T02450075  RH  034%=      5-min Rain = 0
KWA1 191745Z 17012KT 25/07 A2998 RMK A01 T02450074  RH  033%=      5-min Rain = 0
KWA1 191746Z 18012KT 25/07 A2997 RMK A01 T02470074  RH  033%=      5-min Rain = 0
KWA1 191747Z 18010KT 25/08 A2997 RMK A01 T02490076  RH  033%=      5-min Rain = 0
KWA1 191748Z 20012KT 25/08 A2997 RMK A01 T02480077  RH  033%=      5-min Rain = 0
KWA1 191749Z 19013KT 25/07 A2997 RMK A01 T02490072  RH  032%=      5-min Rain = 0
KWA1 191750Z 19010KT 25/07 A2997 RMK A01 T02480073  RH  033%=      5-min Rain = 0
KWA1 191751Z 18012KT 25/08 A2997 RMK A01 T02470075  RH  033%=      5-min Rain = 0
KWA1 191752Z 18011KT 25/08 A2997 RMK A01 T02480075  RH  033%=      5-min Rain = 0
KWA1 191753Z 18009KT 25/08 A2997 RMK A01 T02490076  RH  033%=      5-min Rain = 0
KWA1 191754Z 18010KT 25/08 A2997 RMK A01 T02520078  RH  033%=      5-min Rain = 0
KWA1 191755Z 18012KT 25/08 A2997 RMK A01 T02540077  RH  032%=      5-min Rain = 0
KWA1 191756Z 17013KT 25/07 A2997 RMK A01 T02540072  RH  031%=      5-min Rain = 0
KWA1 191757Z 17013KT 25/07 A2997 RMK A01 T02520073  RH  032%=      5-min Rain = 0
KWA1 191758Z 18012KT 25/07 A2997 RMK A01 T02510073  RH  032%=      5-min Rain = 0
KWA1 191759Z 18009KT 25/07 A2997 RMK A01 T02500074  RH  032%=      5-min Rain = 0
KWA1 191800Z 17012KT 25/07 A2997 RMK A01 T02520071  RH  031%=      5-min Rain = 0
KWA1 191801Z 18012KT 25/07 A2997 RMK A01 T02510072  RH  032%=      5-min Rain = 0
KWA1 191802Z 19010KT 25/07 A2997 RMK A01 T02490070  RH  032%=      5-min Rain = 0
KWA1 191803Z 19012KT 25/07 A2997 RMK A01 T02470072  RH  033%=      5-min Rain = 0
KWA1 191804Z 18010KT 25/07 A2997 RMK A01 T02460070  RH  032%=      5-min Rain = 0
KWA1 191805Z 18010KT 25/07 A2997 RMK A01 T02470066  RH  031%=      5-min Rain = 0
KWA1 191806Z 17013KT 25/07 A2997 RMK A01 T02480065  RH  031%=      5-min Rain = 0
KWA1 191807Z 17012KT 25/07 A2997 RMK A01 T02470068  RH  032%=      5-min Rain = 0
KWA1 191808Z 18010KT 25/07 A2997 RMK A01 T02460072  RH  033%=      5-min Rain = 0
KWA1 191809Z 18011KT 25/07 A2996 RMK A01 T02460072  RH  033%=      5-min Rain = 0
KWA1 191810Z 18013KT 25/07 A2996 RMK A01 T02460073  RH  033%=      5-min Rain = 0
KWA1 191811Z 17013KT 25/08 A2996 RMK A01 T02460076  RH  034%=      5-min Rain = 0
KWA1 191812Z 17012KT 25/08 A2996 RMK A01 T02470076  RH  033%=      5-min Rain = 0
KWA1 191813Z 17012KT 25/07 A2996 RMK A01 T02480074  RH  033%=      5-min Rain = 0
KWA1 191814Z 16011KT 25/08 A2996 RMK A01 T02490075  RH  033%=      5-min Rain = 0
KWA1 191815Z 17014KT 25/08 A2996 RMK A01 T02500076  RH  033%=      5-min Rain = 0
KWA1 191816Z 18014KT 25/08 A2996 RMK A01 T02500077  RH  033%=      5-min Rain = 0
KWA1 191817Z 19011KT 25/08 A2996 RMK A01 T02500076  RH  033%=      5-min Rain = 0
KWA1 191818Z 18013KT 25/08 A2996 RMK A01 T02500076  RH  033%=      5-min Rain = 0
KWA1 191819Z 18012KT 25/08 A2996 RMK A01 T02510075  RH  033%=      5-min Rain = 0
KWA1 191820Z 19013KT 25/08 A2996 RMK A01 T02500075  RH  033%=      5-min Rain = 0
KWA1 191821Z 19009KT 25/08 A2996 RMK A01 T02500077  RH  033%=      5-min Rain = 0
KWA1 191822Z 19011KT 25/08 A2996 RMK A01 T02500078  RH  033%=      5-min Rain = 0
KWA1 191823Z 19011KT 25/08 A2995 RMK A01 T02520076  RH  033%=      5-min Rain = 0
KWA1 191824Z 18010KT 25/08 A2995 RMK A01 T02510075  RH  033%=      5-min Rain = 0
KWA1 191825Z 18013KT 25/08 A2995 RMK A01 T02510076  RH  033%=      5-min Rain = 0
KWA1 191826Z 19011KT 25/08 A2995 RMK A01 T02510075  RH  033%=      5-min Rain = 0
KWA1 191827Z 20014KT 25/07 A2995 RMK A01 T02500074  RH  032%=      5-min Rain = 0
KWA1 191828Z 21010KT 25/07 A2995 RMK A01 T02500073  RH  032%=      5-min Rain = 0
KWA1 191829Z 21011KT 25/07 A2995 RMK A01 T02520071  RH  032%=      5-min Rain = 0
KWA1 191830Z 18014KT 25/07 A2995 RMK A01 T02540074  RH  032%=      5-min Rain = 0
KWA1 191831Z 19011KT 26/07 A2995 RMK A01 T02550074  RH  032%=      5-min Rain = 0
KWA1 191832Z 19010KT 25/08 A2995 RMK A01 T02540075  RH  032%=      5-min Rain = 0
KWA1 191833Z 19011KT 26/08 A2995 RMK A01 T02550075  RH  032%=      5-min Rain = 0
KWA1 191834Z 18009KT 25/08 A2995 RMK A01 T02540075  RH  032%=      5-min Rain = 0
KWA1 191835Z 18012KT 26/08 A2994 RMK A01 T02560076  RH  032%=      5-min Rain = 0
KWA1 191836Z 17014KT 26/07 A2994 RMK A01 T02580071  RH  030%=      5-min Rain = 0
KWA1 191837Z 17012KT 26/07 A2994 RMK A01 T02570068  RH  030%=      5-min Rain = 0
KWA1 191838Z 18011KT 26/07 A2994 RMK A01 T02570070  RH  030%=      5-min Rain = 0
KWA1 191839Z 17013KT 26/07 A2994 RMK A01 T02570070  RH  030%=      5-min Rain = 0
KWA1 191840Z 18010KT 26/07 A2994 RMK A01 T02560067  RH  030%=      5-min Rain = 0
KWA1 191841Z 18011KT 25/07 A2994 RMK A01 T02540067  RH  030%=      5-min Rain = 0
KWA1 191842Z 18010KT 26/07 A2994 RMK A01 T02550071  RH  031%=      5-min Rain = 0
KWA1 191843Z 18014KT 26/07 A2994 RMK A01 T02590069  RH  030%=      5-min Rain = 0
KWA1 191844Z 17014KT 26/07 A2994 RMK A01 T02580069  RH  030%=      5-min Rain = 0
KWA1 191845Z 17015KT 26/07 A2994 RMK A01 T02580068  RH  030%=      5-min Rain = 0
KWA1 191846Z 19014KT 26/07 A2994 RMK A01 T02570066  RH  030%=      5-min Rain = 0
KWA1 191847Z 18014KT 26/07 A2994 RMK A01 T02550067  RH  030%=      5-min Rain = 0
KWA1 191848Z 18013KT 26/07 A2994 RMK A01 T02560069  RH  030%=      5-min Rain = 0
KWA1 191849Z 18011KT 26/07 A2994 RMK A01 T02590071  RH  030%=      5-min Rain = 0
KWA1 191850Z 18012KT 26/07 A2993 RMK A01 T02620073  RH  030%=      5-min Rain = 0
KWA1 191851Z 18012KT 27/07 A2993 RMK A01 T02650070  RH  029%=      5-min Rain = 0
KWA1 191852Z 20011KT 26/07 A2993 RMK A01 T02640069  RH  029%=      5-min Rain = 0
KWA1 191853Z 19011KT 26/07 A2993 RMK A01 T02630070  RH  029%=      5-min Rain = 0
KWA1 191854Z 19011KT 26/07 A2993 RMK A01 T02630070  RH  029%=      5-min Rain = 0
KWA1 191855Z 18007KT 26/07 A2993 RMK A01 T02640071  RH  029%=      5-min Rain = 0
KWA1 191856Z 16010KT 27/07 A2993 RMK A01 T02660071  RH  029%=      5-min Rain = 0
KWA1 191857Z 17011KT 27/07 A2993 RMK A01 T02680070  RH  029%=      5-min Rain = 0
KWA1 191858Z 19013KT 27/07 A2993 RMK A01 T02690068  RH  028%=      5-min Rain = 0
KWA1 191859Z 17011KT 27/07 A2993 RMK A01 T02660069  RH  029%=      5-min Rain = 0
KWA1 191900Z 17012KT 27/07 A2993 RMK A01 T02660069  RH  029%=      5-min Rain = 0
KWA1 191901Z 18013KT 27/07 A2993 RMK A01 T02670071  RH  029%=      5-min Rain = 0
KWA1 191902Z 18011KT 27/07 A2993 RMK A01 T02660073  RH  029%=      5-min Rain = 0
KWA1 191903Z 18015KT 27/07 A2993 RMK A01 T02670073  RH  029%=      5-min Rain = 0
KWA1 191904Z 18016KT 27/07 A2992 RMK A01 T02660073  RH  029%=      5-min Rain = 0
KWA1 191905Z 17016KT 27/07 A2992 RMK A01 T02660072  RH  029%=      5-min Rain = 0
KWA1 191906Z 17013KT 27/07 A2993 RMK A01 T02650072  RH  029%=      5-min Rain = 0
KWA1 191907Z 18015KT 27/07 A2992 RMK A01 T02650072  RH  029%=      5-min Rain = 0
KWA1 191908Z 18015KT 26/07 A2992 RMK A01 T02630071  RH  030%=      5-min Rain = 0
KWA1 191909Z 19011KT 26/07 A2992 RMK A01 T02610072  RH  030%=      5-min Rain = 0
KWA1 191910Z 19009KT 26/07 A2992 RMK A01 T02620071  RH  030%=      5-min Rain = 0
KWA1 191911Z 19009KT 26/07 A2992 RMK A01 T02620071  RH  030%=      5-min Rain = 0
KWA1 191912Z 19012G17KT 26/07 A2992 RMK A01 T02620072  RH  030%=      5-min Rain = 0
KWA1 191913Z 19012KT 26/07 A2992 RMK A01 T02630072  RH  030%=      5-min Rain = 0
KWA1 191914Z 19013KT 26/07 A2992 RMK A01 T02640070  RH  029%=      5-min Rain = 0
KWA1 191915Z 17012KT 26/07 A2992 RMK A01 T02640070  RH  029%=      5-min Rain = 0
KWA1 191916Z 17014KT 26/07 A2992 RMK A01 T02640069  RH  029%=      5-min Rain = 0
KWA1 191917Z 18012KT 26/07 A2992 RMK A01 T02630069  RH  029%=      5-min Rain = 0
KWA1 191918Z 19010KT 26/07 A2992 RMK A01 T02630069  RH  029%=      5-min Rain = 0
KWA1 191919Z 19011KT 26/07 A2992 RMK A01 T02620069  RH  029%=      5-min Rain = 0
KWA1 191920Z 20010KT 26/07 A2992 RMK A01 T02620070  RH  029%=      5-min Rain = 0
KWA1 191921Z 21011KT 27/07 A2992 RMK A01 T02660073  RH  029%=      5-min Rain = 0
KWA1 191922Z 20014KT 27/07 A2991 RMK A01 T02670071  RH  029%=      5-min Rain = 0
KWA1 191923Z 21013KT 27/07 A2991 RMK A01 T02660070  RH  029%=      5-min Rain = 0
KWA1 191924Z 21015KT 27/07 A2991 RMK A01 T02650070  RH  029%=      5-min Rain = 0
KWA1 191925Z 19014KT 27/07 A2991 RMK A01 T02650070  RH  029%=      5-min Rain = 0
KWA1 191926Z 20013KT 27/07 A2991 RMK A01 T02650070  RH  029%=      5-min Rain = 0
KWA1 191927Z 20013KT 26/07 A2991 RMK A01 T02640071  RH  029%=      5-min Rain = 0
KWA1 191928Z 21011KT 26/07 A2991 RMK A01 T02640071  RH  029%=      5-min Rain = 0
KWA1 191929Z 21013KT 26/07 A2991 RMK A01 T02640071  RH  029%=      5-min Rain = 0
KWA1 191930Z 20013KT 26/07 A2991 RMK A01 T02640071  RH  029%=      5-min Rain = 0
KWA1 191931Z 21012KT 26/07 A2991 RMK A01 T02640073  RH  030%=      5-min Rain = 0
KWA1 191932Z 20012KT 26/07 A2991 RMK A01 T02640073  RH  030%=      5-min Rain = 0
KWA1 191933Z 18015KT 27/07 A2991 RMK A01 T02650074  RH  030%=      5-min Rain = 0
KWA1 191934Z 17015KT 27/07 A2991 RMK A01 T02650073  RH  030%=      5-min Rain = 0
KWA1 191935Z 19013KT 26/08 A2991 RMK A01 T02630075  RH  030%=      5-min Rain = 0
KWA1 191936Z 20015KT 26/07 A2991 RMK A01 T02630074  RH  030%=      5-min Rain = 0
KWA1 191937Z 20015KT 26/07 A2991 RMK A01 T02610074  RH  031%=      5-min Rain = 0
KWA1 191938Z 20015KT 26/08 A2991 RMK A01 T02600075  RH  031%=      5-min Rain = 0
KWA1 191939Z 20012KT 26/08 A2991 RMK A01 T02600076  RH  031%=      5-min Rain = 0
KWA1 191940Z 20011KT 26/08 A2991 RMK A01 T02640077  RH  031%=      5-min Rain = 0
KWA1 191941Z 21011KT 27/08 A2991 RMK A01 T02650077  RH  030%=      5-min Rain = 0
KWA1 191942Z 20012KT 27/08 A299 RMK A01 T02650076  RH  030%=      5-min Rain = 0
KWA1 191943Z 20013KT 26/08 A299 RMK A01 T02630077  RH  031%=      5-min Rain = 0
KWA1 191944Z 19011KT 26/08 A299 RMK A01 T02590076  RH  031%=      5-min Rain = 0
KWA1 191945Z 20014KT 26/08 A299 RMK A01 T02580077  RH  032%=      5-min Rain = 0
KWA1 191946Z 19011KT 26/08 A299 RMK A01 T02580078  RH  032%=      5-min Rain = 0
KWA1 191947Z 19010KT 26/08 A299 RMK A01 T02570078  RH  032%=      5-min Rain = 0
KWA1 191948Z 17013KT 26/08 A299 RMK A01 T02570078  RH  032%=      5-min Rain = 0
KWA1 191949Z 18014KT 26/08 A299 RMK A01 T02580079  RH  032%=      5-min Rain = 0
KWA1 191950Z 18015KT 26/08 A299 RMK A01 T02590079  RH  032%=      5-min Rain = 0
KWA1 191951Z 19012KT 26/08 A299 RMK A01 T02580080  RH  032%=      5-min Rain = 0
KWA1 191952Z 20010KT 26/08 A299 RMK A01 T02580080  RH  032%=      5-min Rain = 0
KWA1 191953Z 21010KT 26/08 A299 RMK A01 T02590080  RH  032%=      5-min Rain = 0
KWA1 191954Z 21012KT 26/08 A299 RMK A01 T02580081  RH  033%=      5-min Rain = 0
KWA1 191955Z 20015KT 26/08 A299 RMK A01 T02570082  RH  033%=      5-min Rain = 0
KWA1 191956Z 21013KT 26/08 A299 RMK A01 T02580083  RH  033%=      5-min Rain = 0
KWA1 191957Z 20012KT 26/08 A299 RMK A01 T02580083  RH  033%=      5-min Rain = 0
KWA1 191958Z 19012KT 26/08 A299 RMK A01 T02590084  RH  033%=      5-min Rain = 0
KWA1 191959Z 19011KT 26/08 A299 RMK A01 T02610084  RH  033%=      5-min Rain = 0
KWA1 192000Z 19012KT 26/09 A299 RMK A01 T02620086  RH  033%=      5-min Rain = 0
KWA1 192001Z 18012KT 26/09 A2989 RMK A01 T02640085  RH  032%=      5-min Rain = 0
KWA1 192002Z 17013KT 26/09 A2989 RMK A01 T02640086  RH  032%=      5-min Rain = 0
KWA1 192003Z 18013KT 27/09 A2989 RMK A01 T02650085  RH  032%=      5-min Rain = 0
KWA1 192004Z 17014KT 27/09 A2989 RMK A01 T02650085  RH  032%=      5-min Rain = 0
KWA1 192005Z 17013KT 26/09 A2989 RMK A01 T02640086  RH  033%=      5-min Rain = 0
KWA1 192006Z 18012KT 27/09 A2989 RMK A01 T02650086  RH  032%=      5-min Rain = 0
KWA1 192007Z 17010KT 26/09 A2989 RMK A01 T02640085  RH  032%=      5-min Rain = 0
KWA1 192008Z 18012KT 26/09 A2989 RMK A01 T02640087  RH  033%=      5-min Rain = 0
KWA1 192009Z 18013KT 27/09 A2989 RMK A01 T02650087  RH  032%=      5-min Rain = 0
KWA1 192010Z 19012KT 27/09 A2989 RMK A01 T02650085  RH  032%=      5-min Rain = 0
KWA1 192011Z 19010KT 26/09 A2989 RMK A01 T02630085  RH  032%=      5-min Rain = 0
KWA1 192012Z 19009KT 26/09 A2989 RMK A01 T02620086  RH  033%=      5-min Rain = 0
KWA1 192013Z 18011KT 27/09 A2989 RMK A01 T02650088  RH  033%=      5-min Rain = 0
KWA1 192014Z 19012KT 27/09 A2989 RMK A01 T02680087  RH  032%=      5-min Rain = 0
KWA1 192015Z 20012KT 27/09 A2989 RMK A01 T02670085  RH  032%=      5-min Rain = 0
KWA1 192016Z 19011KT 27/08 A2989 RMK A01 T02650084  RH  032%=      5-min Rain = 0
KWA1 192017Z 18010KT 26/08 A2989 RMK A01 T02640084  RH  032%=      5-min Rain = 0
KWA1 192018Z 16011KT 27/09 A2989 RMK A01 T02650085  RH  032%=      5-min Rain = 0
KWA1 192019Z 16009KT 27/08 A2989 RMK A01 T02650084  RH  032%=      5-min Rain = 0
KWA1 192020Z 18012KT 27/09 A2989 RMK A01 T02670086  RH  032%=      5-min Rain = 0
KWA1 192021Z 19013KT 27/08 A2989 RMK A01 T02680083  RH  031%=      5-min Rain = 0
KWA1 192022Z 19014KT 27/08 A2989 RMK A01 T02680082  RH  031%=      5-min Rain = 0
KWA1 192023Z 18014KT 27/08 A2989 RMK A01 T02680083  RH  031%=      5-min Rain = 0
KWA1 192024Z 17012KT 27/08 A2989 RMK A01 T02680082  RH  031%=      5-min Rain = 0
KWA1 192025Z 17013KT 27/08 A2989 RMK A01 T02680081  RH  031%=      5-min Rain = 0
KWA1 192026Z 16010KT 27/08 A2988 RMK A01 T02670082  RH  031%=      5-min Rain = 0
KWA1 192027Z 16011KT 27/08 A2988 RMK A01 T02670081  RH  031%=      5-min Rain = 0
KWA1 192028Z 18013KT 27/08 A2988 RMK A01 T02680083  RH  031%=      5-min Rain = 0
KWA1 192029Z 17015KT 27/09 A2988 RMK A01 T02700085  RH  031%=      5-min Rain = 0
KWA1 192030Z 17015KT 27/08 A2988 RMK A01 T02700083  RH  031%=      5-min Rain = 0
KWA1 192031Z 18017KT 27/08 A2988 RMK A01 T02690082  RH  031%=      5-min Rain = 0
KWA1 192032Z 18016KT 27/08 A2988 RMK A01 T02680081  RH  031%=      5-min Rain = 0
KWA1 192033Z 19013KT 27/08 A2988 RMK A01 T02670082  RH  031%=      5-min Rain = 0
KWA1 192034Z 18010KT 27/08 A2988 RMK A01 T02670082  RH  031%=      5-min Rain = 0
KWA1 192035Z 18013KT 27/08 A2988 RMK A01 T02690083  RH  031%=      5-min Rain = 0
KWA1 192036Z 19014KT 27/08 A2988 RMK A01 T02690083  RH  031%=      5-min Rain = 0
KWA1 192037Z 19013KT 27/08 A2988 RMK A01 T02690082  RH  031%=      5-min Rain = 0
KWA1 192038Z 17012KT 27/08 A2988 RMK A01 T02670082  RH  031%=      5-min Rain = 0
KWA1 192039Z 17012KT 27/08 A2988 RMK A01 T02680081  RH  031%=      5-min Rain = 0
KWA1 192040Z 17012KT 27/08 A2988 RMK A01 T02680081  RH  031%=      5-min Rain = 0
KWA1 192041Z 17014KT 27/08 A2988 RMK A01 T02700081  RH  030%=      5-min Rain = 0
KWA1 192042Z 17014KT 27/08 A2988 RMK A01 T02710081  RH  030%=      5-min Rain = 0
KWA1 192043Z 18013KT 27/08 A2988 RMK A01 T02700081  RH  030%=      5-min Rain = 0
KWA1 192044Z 19013KT 27/08 A2988 RMK A01 T02700082  RH  030%=      5-min Rain = 0
KWA1 192045Z 20013KT 27/08 A2988 RMK A01 T02690082  RH  031%=      5-min Rain = 0
KWA1 192046Z 18015KT 27/08 A2988 RMK A01 T02690082  RH  031%=      5-min Rain = 0
KWA1 192047Z 18014KT 27/08 A2988 RMK A01 T02680081  RH  031%=      5-min Rain = 0
KWA1 192048Z 19015KT 27/08 A2988 RMK A01 T02680082  RH  031%=      5-min Rain = 0
KWA1 192049Z 19014KT 27/08 A2988 RMK A01 T02690081  RH  031%=      5-min Rain = 0
KWA1 192050Z 19010KT 27/08 A2988 RMK A01 T02690081  RH  030%=      5-min Rain = 0
KWA1 192051Z 17011KT 27/08 A2988 RMK A01 T02690081  RH  030%=      5-min Rain = 0
KWA1 192052Z 17010KT 27/08 A2987 RMK A01 T02690081  RH  030%=      5-min Rain = 0
KWA1 192053Z 17012KT 27/08 A2987 RMK A01 T02710081  RH  030%=      5-min Rain = 0
KWA1 192054Z 18013G18KT 27/08 A2987 RMK A01 T02700082  RH  030%=      5-min Rain = 0
KWA1 192055Z 18013KT 27/08 A2987 RMK A01 T02700081  RH  030%=      5-min Rain = 0
KWA1 192056Z 18012KT 27/08 A2987 RMK A01 T02700081  RH  030%=      5-min Rain = 0
KWA1 192057Z 18013KT 27/08 A2987 RMK A01 T02690079  RH  030%=      5-min Rain = 0
KWA1 192058Z 17013KT 27/08 A2987 RMK A01 T02690081  RH  030%=      5-min Rain = 0
KWA1 192059Z 17011KT 27/08 A2987 RMK A01 T02690081  RH  030%=      5-min Rain = 0
KWA1 192100Z 18013KT 27/08 A2987 RMK A01 T02700083  RH  031%=      5-min Rain = 0
KWA1 192101Z 18013KT 27/08 A2987 RMK A01 T02710080  RH  030%=      5-min Rain = 0
KWA1 192102Z 18012KT 27/08 A2987 RMK A01 T02680079  RH  030%=      5-min Rain = 0
KWA1 192103Z 18015KT 27/08 A2987 RMK A01 T02680080  RH  031%=      5-min Rain = 0
KWA1 192104Z 19015KT 27/08 A2987 RMK A01 T02670079  RH  030%=      5-min Rain = 0
KWA1 192105Z 17017KT 27/08 A2987 RMK A01 T02680079  RH  030%=      5-min Rain = 0
KWA1 192106Z 17014KT 27/08 A2987 RMK A01 T02680079  RH  030%=      5-min Rain = 0
KWA1 192107Z 18014KT 27/08 A2987 RMK A01 T02680079  RH  030%=      5-min Rain = 0
KWA1 192108Z 18014KT 27/08 A2987 RMK A01 T02680079  RH  030%=      5-min Rain = 0
KWA1 192109Z 17014KT 27/08 A2987 RMK A01 T02680080  RH  030%=      5-min Rain = 0
KWA1 192110Z 17016KT 27/08 A2987 RMK A01 T02690081  RH  030%=      5-min Rain = 0
KWA1 192111Z 17016KT 27/08 A2987 RMK A01 T02690080  RH  030%=      5-min Rain = 0
KWA1 192112Z 17014KT 27/08 A2987 RMK A01 T02690080  RH  030%=      5-min Rain = 0
KWA1 192113Z 18012KT 27/08 A2987 RMK A01 T02690080  RH  030%=      5-min Rain = 0
KWA1 192114Z 18012KT 27/08 A2987 RMK A01 T02690080  RH  030%=      5-min Rain = 0
KWA1 192115Z 17012KT 27/08 A2987 RMK A01 T02680080  RH  030%=      5-min Rain = 0
KWA1 192116Z 18011KT 27/08 A2987 RMK A01 T02680080  RH  030%=      5-min Rain = 0
KWA1 192117Z 18011KT 27/08 A2987 RMK A01 T02690081  RH  030%=      5-min Rain = 0
KWA1 192118Z 20010G15KT 27/08 A2987 RMK A01 T02700083  RH  031%=      5-min Rain = 0
KWA1 192119Z 19012KT 27/08 A2987 RMK A01 T02730081  RH  030%=      5-min Rain = 0
KWA1 192120Z 20013KT 27/08 A2987 RMK A01 T02740080  RH  029%=      5-min Rain = 0
KWA1 192121Z 20012KT 27/08 A2987 RMK A01 T02720079  RH  030%=      5-min Rain = 0
KWA1 192122Z 19015KT 27/08 A2987 RMK A01 T02710080  RH  030%=      5-min Rain = 0
KWA1 192123Z 19014KT 27/08 A2987 RMK A01 T02700080  RH  030%=      5-min Rain = 0
KWA1 192124Z 18015KT 27/08 A2987 RMK A01 T02690082  RH  031%=      5-min Rain = 0
KWA1 192125Z 18013KT 27/08 A2987 RMK A01 T02690081  RH  030%=      5-min Rain = 0
KWA1 192126Z 18012KT 27/08 A2987 RMK A01 T02680081  RH  030%=      5-min Rain = 0
KWA1 192127Z 17011KT 27/08 A2987 RMK A01 T02690082  RH  031%=      5-min Rain = 0
KWA1 192128Z 17014KT 27/08 A2987 RMK A01 T02710080  RH  030%=      5-min Rain = 0
KWA1 192129Z 17015KT 27/08 A2987 RMK A01 T02710079  RH  030%=      5-min Rain = 0
KWA1 192130Z 17016KT 27/08 A2987 RMK A01 T02700079  RH  030%=      5-min Rain = 0
KWA1 192131Z 18014KT 27/08 A2987 RMK A01 T02710080  RH  030%=      5-min Rain = 0
KWA1 192132Z 17014KT 27/08 A2987 RMK A01 T02710079  RH  030%=      5-min Rain = 0
KWA1 192133Z 18013KT 27/08 A2987 RMK A01 T02720078  RH  029%=      5-min Rain = 0
KWA1 192134Z 19013KT 27/08 A2987 RMK A01 T02710078  RH  030%=      5-min Rain = 0
KWA1 192135Z 18017KT 27/08 A2987 RMK A01 T02710079  RH  030%=      5-min Rain = 0
KWA1 192136Z 19014KT 27/08 A2987 RMK A01 T02690078  RH  030%=      5-min Rain = 0
KWA1 192137Z 20013KT 27/08 A2987 RMK A01 T02690077  RH  030%=      5-min Rain = 0
KWA1 192138Z 20013KT 27/08 A2987 RMK A01 T02690078  RH  030%=      5-min Rain = 0
KWA1 192139Z 19015KT 27/08 A2987 RMK A01 T02690079  RH  030%=      5-min Rain = 0
KWA1 192140Z 18013KT 27/08 A2987 RMK A01 T02700080  RH  030%=      5-min Rain = 0
KWA1 192141Z 20013KT 27/08 A2987 RMK A01 T02690080  RH  030%=      5-min Rain = 0
KWA1 192142Z 19011KT 27/08 A2987 RMK A01 T02690079  RH  030%=      5-min Rain = 0
KWA1 192143Z 18011KT 27/08 A2987 RMK A01 T02680081  RH  031%=      5-min Rain = 0
KWA1 192144Z 18012KT 27/08 A2987 RMK A01 T02690082  RH  031%=      5-min Rain = 0
KWA1 192145Z 17010KT 27/08 A2987 RMK A01 T02700083  RH  031%=      5-min Rain = 0
KWA1 192146Z 17010KT 27/08 A2987 RMK A01 T02720083  RH  030%=      5-min Rain = 0
KWA1 192147Z 18011KT 27/08 A2987 RMK A01 T02720081  RH  030%=      5-min Rain = 0
KWA1 192148Z 18011KT 27/08 A2987 RMK A01 T02710083  RH  030%=      5-min Rain = 0
KWA1 192149Z 20012KT 27/08 A2987 RMK A01 T02710082  RH  030%=      5-min Rain = 0
KWA1 192150Z 21014KT 27/08 A2987 RMK A01 T02710082  RH  030%=      5-min Rain = 0
KWA1 192151Z 20013KT 27/08 A2987 RMK A01 T02700081  RH  030%=      5-min Rain = 0
KWA1 192152Z 19013KT 27/08 A2987 RMK A01 T02680082  RH  031%=      5-min Rain = 0
KWA1 192153Z 19013KT 27/08 A2987 RMK A01 T02680083  RH  031%=      5-min Rain = 0
KWA1 192154Z 18013KT 27/08 A2987 RMK A01 T02680083  RH  031%=      5-min Rain = 0
KWA1 192155Z 17014KT 27/08 A2987 RMK A01 T02690082  RH  031%=      5-min Rain = 0
KWA1 192156Z 17016KT 27/08 A2987 RMK A01 T02680081  RH  031%=      5-min Rain = 0
KWA1 192157Z 17014KT 27/08 A2987 RMK A01 T02670081  RH  031%=      5-min Rain = 0
KWA1 192158Z 17017KT 27/08 A2987 RMK A01 T02670082  RH  031%=      5-min Rain = 0
KWA1 192159Z 19015G20KT 27/08 A2987 RMK A01 T02670083  RH  031%=      5-min Rain = 0
KWA1 192200Z 19016KT 27/08 A2987 RMK A01 T02670083  RH  031%=      5-min Rain = 0
KWA1 192201Z 19014KT 27/08 A2987 RMK A01 T02670083  RH  031%=      5-min Rain = 0
KWA1 192202Z 18016KT 27/08 A2987 RMK A01 T02660082  RH  031%=      5-min Rain = 0
KWA1 192203Z 18013KT 27/08 A2987 RMK A01 T02650081  RH  031%=      5-min Rain = 0
KWA1 192204Z 18014KT 27/08 A2987 RMK A01 T02660082  RH  031%=      5-min Rain = 0
KWA1 192205Z 18011KT 27/08 A2987 RMK A01 T02650082  RH  031%=      5-min Rain = 0
KWA1 192206Z 19010KT 27/08 A2987 RMK A01 T02650082  RH  031%=      5-min Rain = 0
KWA1 192207Z 18010KT 27/08 A2987 RMK A01 T02650083  RH  031%=      5-min Rain = 0
KWA1 192208Z 17012KT 27/08 A2987 RMK A01 T02660082  RH  031%=      5-min Rain = 0
KWA1 192209Z 18013KT 27/08 A2987 RMK A01 T02660081  RH  031%=      5-min Rain = 0
KWA1 192210Z 19013KT 27/08 A2987 RMK A01 T02660080  RH  031%=      5-min Rain = 0
KWA1 192211Z 20012KT 27/08 A2987 RMK A01 T02660078  RH  030%=      5-min Rain = 0
KWA1 192212Z 21011KT 27/08 A2987 RMK A01 T02660075  RH  030%=      5-min Rain = 0
KWA1 192213Z 19010KT 27/08 A2987 RMK A01 T02670077  RH  030%=      5-min Rain = 0
KWA1 192214Z 18010KT 27/08 A2987 RMK A01 T02660079  RH  031%=      5-min Rain = 0
KWA1 192215Z 18011G16KT 27/08 A2987 RMK A01 T02660080  RH  031%=      5-min Rain = 0
KWA1 192216Z 17013KT 27/08 A2987 RMK A01 T02660081  RH  031%=      5-min Rain = 0
KWA1 192217Z 18015KT 27/08 A2987 RMK A01 T02660080  RH  031%=      5-min Rain = 0
KWA1 192218Z 18015KT 26/08 A2987 RMK A01 T02640079  RH  031%=      5-min Rain = 0
KWA1 192219Z 18014KT 26/08 A2987 RMK A01 T02630079  RH  031%=      5-min Rain = 0
KWA1 192220Z 17014KT 26/08 A2987 RMK A01 T02630080  RH  031%=      5-min Rain = 0
KWA1 192221Z 18013KT 26/08 A2987 RMK A01 T02630079  RH  031%=      5-min Rain = 0
KWA1 192222Z 19013KT 26/08 A2987 RMK A01 T02620080  RH  031%=      5-min Rain = 0
KWA1 192223Z 18011KT 26/08 A2987 RMK A01 T02620080  RH  032%=      5-min Rain = 0
KWA1 192224Z 18013KT 26/08 A2987 RMK A01 T02630080  RH  031%=      5-min Rain = 0
KWA1 192225Z 18011KT 26/08 A2987 RMK A01 T02630079  RH  031%=      5-min Rain = 0
KWA1 192226Z 19010KT 26/08 A2987 RMK A01 T02620080  RH  032%=      5-min Rain = 0
KWA1 192227Z 19009KT 26/08 A2987 RMK A01 T02620080  RH  031%=      5-min Rain = 0
KWA1 192228Z 18013KT 26/08 A2987 RMK A01 T02630080  RH  031%=      5-min Rain = 0
KWA1 192229Z 18012KT 26/08 A2987 RMK A01 T02630079  RH  031%=      5-min Rain = 0
KWA1 192230Z 18010KT 26/08 A2987 RMK A01 T02610080  RH  032%=      5-min Rain = 0
KWA1 192231Z 19011KT 26/08 A2987 RMK A01 T02610079  RH  031%=      5-min Rain = 0
KWA1 192232Z 19009KT 26/08 A2987 RMK A01 T02610080  RH  032%=      5-min Rain = 0
KWA1 192233Z 19012KT 26/08 A2987 RMK A01 T02610080  RH  032%=      5-min Rain = 0
KWA1 192234Z 18011KT 26/08 A2987 RMK A01 T02600080  RH  032%=      5-min Rain = 0
KWA1 192235Z 18015KT 26/08 A2987 RMK A01 T02600079  RH  032%=      5-min Rain = 0
KWA1 192236Z 17012KT 26/08 A2987 RMK A01 T02590078  RH  032%=      5-min Rain = 0
KWA1 192237Z 17013KT 26/08 A2987 RMK A01 T02580079  RH  032%=      5-min Rain = 0
KWA1 192238Z 18014KT 26/08 A2987 RMK A01 T02580078  RH  032%=      5-min Rain = 0
KWA1 192239Z 18014KT 26/08 A2987 RMK A01 T02580079  RH  032%=      5-min Rain = 0
KWA1 192240Z 19016KT 26/08 A2987 RMK A01 T02570079  RH  032%=      5-min Rain = 0
KWA1 192241Z 18013KT 26/08 A2987 RMK A01 T02570079  RH  032%=      5-min Rain = 0
KWA1 192242Z 18010KT 26/08 A2987 RMK A01 T02570080  RH  033%=      5-min Rain = 0
KWA1 192243Z 18012KT 26/08 A2987 RMK A01 T02560080  RH  033%=      5-min Rain = 0
KWA1 192244Z 18011KT 26/08 A2987 RMK A01 T02550080  RH  033%=      5-min Rain = 0
KWA1 192245Z 18014KT 26/08 A2987 RMK A01 T02550080  RH  033%=      5-min Rain = 0
KWA1 192246Z 18015KT 25/08 A2987 RMK A01 T02540080  RH  033%=      5-min Rain = 0
KWA1 192247Z 18013KT 25/08 A2987 RMK A01 T02530080  RH  033%=      5-min Rain = 0
KWA1 192248Z 18009KT 25/08 A2987 RMK A01 T02520080  RH  033%=      5-min Rain = 0
KWA1 192249Z 18010KT 25/08 A2987 RMK A01 T02520081  RH  034%=      5-min Rain = 0
KWA1 192250Z 18010KT 25/08 A2987 RMK A01 T02500081  RH  034%=      5-min Rain = 0
KWA1 192251Z 18010KT 25/08 A2987 RMK A01 T02500081  RH  034%=      5-min Rain = 0
KWA1 192252Z 18010KT 25/08 A2987 RMK A01 T02500081  RH  034%=      5-min Rain = 0
KWA1 192253Z 18011KT 25/08 A2987 RMK A01 T02500081  RH  034%=      5-min Rain = 0
KWA1 192254Z 18010KT 25/08 A2987 RMK A01 T02500081  RH  034%=      5-min Rain = 0
KWA1 192255Z 18010KT 25/08 A2987 RMK A01 T02500082  RH  034%=      5-min Rain = 0
KWA1 192256Z 18010KT 25/08 A2987 RMK A01 T02500082  RH  034%=      5-min Rain = 0
KWA1 192257Z 18012KT 25/08 A2987 RMK A01 T02510081  RH  034%=      5-min Rain = 0
KWA1 192258Z 18012KT 25/08 A2987 RMK A01 T02510081  RH  034%=      5-min Rain = 0
KWA1 192259Z 18011KT 25/08 A2987 RMK A01 T02510081  RH  034%=      5-min Rain = 0
KWA1 192300Z 17011KT 25/08 A2987 RMK A01 T02500081  RH  034%=      5-min Rain = 0
KWA1 192301Z 17012KT 25/08 A2987 RMK A01 T02490081  RH  034%=      5-min Rain = 0
KWA1 192302Z 17013KT 25/08 A2987 RMK A01 T02490081  RH  034%=      5-min Rain = 0
KWA1 192303Z 17011KT 25/08 A2987 RMK A01 T02480080  RH  034%=      5-min Rain = 0
KWA1 192304Z 17012G18KT 25/08 A2987 RMK A01 T02470080  RH  035%=      5-min Rain = 0
KWA1 192305Z 17014KT 25/08 A2987 RMK A01 T02460080  RH  035%=      5-min Rain = 0
KWA1 192306Z 17014KT 25/08 A2987 RMK A01 T02460080  RH  035%=      5-min Rain = 0
KWA1 192307Z 17011KT 25/08 A2987 RMK A01 T02460080  RH  035%=      5-min Rain = 0
KWA1 192308Z 17011KT 25/08 A2987 RMK A01 T02450080  RH  035%=      5-min Rain = 0
KWA1 192309Z 18012KT 24/08 A2987 RMK A01 T02440080  RH  035%=      5-min Rain = 0
KWA1 192310Z 17012KT 24/08 A2987 RMK A01 T02440080  RH  035%=      5-min Rain = 0
KWA1 192311Z 18010KT 24/08 A2987 RMK A01 T02430080  RH  035%=      5-min Rain = 0
KWA1 192312Z 17010KT 24/08 A2987 RMK A01 T02420080  RH  035%=      5-min Rain = 0
KWA1 192313Z 18011KT 24/08 A2987 RMK A01 T02410079  RH  036%=      5-min Rain = 0
KWA1 192314Z 18010KT 24/08 A2987 RMK A01 T02400080  RH  036%=      5-min Rain = 0
KWA1 192315Z 18010KT 24/08 A2987 RMK A01 T02400079  RH  036%=      5-min Rain = 0
KWA1 192316Z 18009KT 24/08 A2987 RMK A01 T02390079  RH  036%=      5-min Rain = 0
KWA1 192317Z 18009KT 24/08 A2987 RMK A01 T02380079  RH  036%=      5-min Rain = 0
KWA1 192318Z 18009KT 24/08 A2987 RMK A01 T02380079  RH  036%=      5-min Rain = 0
KWA1 192319Z 18009KT 24/08 A2987 RMK A01 T02370079  RH  036%=      5-min Rain = 0
KWA1 192320Z 18008KT 24/08 A2987 RMK A01 T02360078  RH  036%=      5-min Rain = 0
KWA1 192321Z 18008KT 24/08 A2987 RMK A01 T02350078  RH  037%=      5-min Rain = 0
KWA1 192322Z 17008KT 23/08 A2987 RMK A01 T02340078  RH  037%=      5-min Rain = 0
KWA1 192323Z 17009KT 23/08 A2987 RMK A01 T02340078  RH  037%=      5-min Rain = 0
KWA1 192324Z 17008KT 23/08 A2987 RMK A01 T02330078  RH  037%=      5-min Rain = 0
KWA1 192325Z 18008KT 23/08 A2987 RMK A01 T02330078  RH  037%=      5-min Rain = 0
KWA1 192326Z 17008KT 23/08 A2987 RMK A01 T02320077  RH  037%=      5-min Rain = 0
KWA1 192327Z 17009KT 23/08 A2987 RMK A01 T02310078  RH  037%=      5-min Rain = 0
KWA1 192328Z 17007KT 23/08 A2987 RMK A01 T02300077  RH  037%=      5-min Rain = 0
KWA1 192329Z 17007KT 23/08 A2987 RMK A01 T02290077  RH  038%=      5-min Rain = 0
KWA1 192330Z 17007KT 23/08 A2987 RMK A01 T02290077  RH  038%=      5-min Rain = 0
KWA1 192331Z 17008KT 23/08 A2987 RMK A01 T02270077  RH  038%=      5-min Rain = 0
KWA1 192332Z 17007KT 23/08 A2987 RMK A01 T02260077  RH  038%=      5-min Rain = 0
KWA1 192333Z 17007KT 23/08 A2987 RMK A01 T02250076  RH  038%=      5-min Rain = 0
KWA1 192334Z 17006KT 22/08 A2987 RMK A01 T02240076  RH  039%=      5-min Rain = 0
KWA1 192335Z 17006KT 22/08 A2987 RMK A01 T02230076  RH  039%=      5-min Rain = 0
KWA1 192336Z 17006KT 22/08 A2987 RMK A01 T02220076  RH  039%=      5-min Rain = 0
KWA1 192337Z 16006KT 22/08 A2987 RMK A01 T02200075  RH  039%=      5-min Rain = 0
KWA1 192338Z 16006KT 22/08 A2987 RMK A01 T02190075  RH  040%=      5-min Rain = 0
KWA1 192339Z 16006KT 22/08 A2987 RMK A01 T02170075  RH  040%=      5-min Rain = 0
KWA1 192340Z 16006KT 22/07 A2987 RMK A01 T02160074  RH  040%=      5-min Rain = 0
KWA1 192341Z 16006KT 22/08 A2987 RMK A01 T02150075  RH  040%=      5-min Rain = 0
KWA1 192342Z 16006KT 21/07 A2987 RMK A01 T02130074  RH  041%=      5-min Rain = 0
KWA1 192343Z 17006KT 21/07 A2987 RMK A01 T02120074  RH  041%=      5-min Rain = 0
KWA1 192344Z 17007KT 21/07 A2987 RMK A01 T02110074  RH  041%=      5-min Rain = 0
KWA1 192345Z 17007KT 21/08 A2987 RMK A01 T02110075  RH  041%=      5-min Rain = 0
KWA1 192346Z 16007KT 21/08 A2987 RMK A01 T02100075  RH  042%=      5-min Rain = 0
KWA1 192347Z 17007KT 21/08 A2987 RMK A01 T02100075  RH  042%=      5-min Rain = 0
KWA1 192348Z 16007KT 21/08 A2987 RMK A01 T02090075  RH  042%=      5-min Rain = 0
KWA1 192349Z 16007KT 21/08 A2987 RMK A01 T02090076  RH  042%=      5-min Rain = 0
KWA1 192350Z 16007KT 21/08 A2987 RMK A01 T02090076  RH  042%=      5-min Rain = 0
KWA1 192351Z 17007KT 21/08 A2987 RMK A01 T02080076  RH  043%=      5-min Rain = 0
KWA1 192352Z 16007KT 21/08 A2987 RMK A01 T02080076  RH  043%=      5-min Rain = 0
KWA1 192353Z 16007KT 21/08 A2987 RMK A01 T02080076  RH  043%=      5-min Rain = 0
KWA1 192354Z 16007KT 21/08 A2987 RMK A01 T02080077  RH  043%=      5-min Rain = 0
KWA1 192355Z 17007KT 21/08 A2987 RMK A01 T02080077  RH  043%=      5-min Rain = 0
KWA1 192356Z 16007KT 21/08 A2987 RMK A01 T02070076  RH  043%=      5-min Rain = 0
KWA1 192357Z 16008KT 21/08 A2987 RMK A01 T02060077  RH  043%=      5-min Rain = 0
KWA1 192358Z 17008KT 21/08 A2987 RMK A01 T02060077  RH  043%=      5-min Rain = 0
KWA1 192359Z 16007KT 21/08 A2987 RMK A01 T02060077  RH  043%=      5-min Rain = 0
KWA1 200000Z 17007KT 21/08 A2987 RMK A01 T02050077  RH  043%=      5-min Rain = 0
KWA1 200001Z 17007KT 20/08 A2987 RMK A01 T02040077  RH  044%=      5-min Rain = 0
KWA1 200002Z 17008KT 20/08 A2987 RMK A01 T02040077  RH  044%=      5-min Rain = 0
KWA1 200003Z 17007KT 20/08 A2987 RMK A01 T02030077  RH  044%=      5-min Rain = 0
KWA1 200004Z 17007KT 20/08 A2987 RMK A01 T02030077  RH  044%=      5-min Rain = 0
KWA1 200005Z 17008KT 20/08 A2987 RMK A01 T02030077  RH  044%=      5-min Rain = 0
KWA1 200006Z 17008KT 20/08 A2987 RMK A01 T02020077  RH  044%=      5-min Rain = 0
KWA1 200007Z 16008KT 20/08 A2987 RMK A01 T02020077  RH  044%=      5-min Rain = 0
KWA1 200008Z 17008KT 20/08 A2987 RMK A01 T02010077  RH  045%=      5-min Rain = 0
KWA1 200009Z 17008KT 20/08 A2987 RMK A01 T02010077  RH  045%=      5-min Rain = 0
KWA1 200010Z 17008KT 20/08 A2987 RMK A01 T02010077  RH  045%=      5-min Rain = 0
KWA1 200011Z 17008KT 20/08 A2987 RMK A01 T02010077  RH  045%=      5-min Rain = 0
KWA1 200012Z 17008KT 20/08 A2987 RMK A01 T02010077  RH  045%=      5-min Rain = 0
KWA1 200013Z 17008KT 20/08 A2987 RMK A01 T02010077  RH  045%=      5-min Rain = 0
KWA1 200014Z 17008KT 20/08 A2987 RMK A01 T02000077  RH  045%=      5-min Rain = 0
KWA1 200015Z 17008KT 20/08 A2987 RMK A01 T02000077  RH  045%=      5-min Rain = 0
KWA1 200016Z 17008KT 20/08 A2987 RMK A01 T02000077  RH  045%=      5-min Rain = 0
KWA1 200017Z 17008KT 20/08 A2987 RMK A01 T02000077  RH  045%=      5-min Rain = 0
KWA1 200018Z 17008KT 20/08 A2987 RMK A01 T01990077  RH  045%=      5-min Rain = 0
KWA1 200019Z 17008KT 20/08 A2987 RMK A01 T01990077  RH  045%=      5-min Rain = 0
KWA1 200020Z 17008KT 20/08 A2987 RMK A01 T01990077  RH  045%=      5-min Rain = 0
KWA1 200021Z 17008KT 20/08 A2987 RMK A01 T01990077  RH  045%=      5-min Rain = 0
KWA1 200022Z 17008KT 20/08 A2987 RMK A01 T01990077  RH  045%=      5-min Rain = 0
KWA1 200023Z 17007KT 20/08 A2987 RMK A01 T02000077  RH  045%=      5-min Rain = 0
KWA1 200024Z 17008KT 20/08 A2987 RMK A01 T02000077  RH  045%=      5-min Rain = 0
KWA1 200025Z 17008KT 20/08 A2987 RMK A01 T01990076  RH  045%=      5-min Rain = 0
KWA1 200026Z 17008KT 20/08 A2987 RMK A01 T01990077  RH  045%=      5-min Rain = 0
KWA1 200027Z 17007KT 20/08 A2987 RMK A01 T01990077  RH  045%=      5-min Rain = 0
KWA1 200028Z 17007KT 20/08 A2988 RMK A01 T01980077  RH  045%=      5-min Rain = 0
KWA1 200029Z 17007KT 20/08 A2988 RMK A01 T01980077  RH  045%=      5-min Rain = 0
KWA1 200030Z 17007KT 20/08 A2988 RMK A01 T01980077  RH  046%=      5-min Rain = 0
KWA1 200031Z 17007KT 20/08 A2988 RMK A01 T01970077  RH  046%=      5-min Rain = 0
KWA1 200032Z 17007KT 20/08 A2988 RMK A01 T01970077  RH  046%=      5-min Rain = 0
KWA1 200033Z 17007KT 20/08 A2988 RMK A01 T01970077  RH  046%=      5-min Rain = 0
KWA1 200034Z 17007KT 20/08 A2988 RMK A01 T01970077  RH  046%=      5-min Rain = 0
KWA1 200035Z 17007KT 20/08 A2988 RMK A01 T01960077  RH  046%=      5-min Rain = 0
KWA1 200036Z 17007KT 20/08 A2988 RMK A01 T01960077  RH  046%=      5-min Rain = 0
KWA1 200037Z 17007KT 20/08 A2988 RMK A01 T01960077  RH  046%=      5-min Rain = 0
KWA1 200038Z 17008KT 20/08 A2988 RMK A01 T01960077  RH  046%=      5-min Rain = 0
KWA1 200039Z 17007KT 20/08 A2988 RMK A01 T01960077  RH  046%=      5-min Rain = 0
KWA1 200040Z 17008KT 20/08 A2988 RMK A01 T01960077  RH  046%=      5-min Rain = 0
KWA1 200041Z 17007KT 20/08 A2988 RMK A01 T01960077  RH  046%=      5-min Rain = 0
KWA1 200042Z 17007KT 20/08 A2988 RMK A01 T01960077  RH  046%=      5-min Rain = 0
KWA1 200043Z 17007KT 20/08 A2988 RMK A01 T01950077  RH  046%=      5-min Rain = 0
KWA1 200044Z 17007KT 20/08 A2988 RMK A01 T01960078  RH  046%=      5-min Rain = 0
KWA1 200045Z 17007KT 20/08 A2988 RMK A01 T01950077  RH  046%=      5-min Rain = 0
KWA1 200046Z 17007KT 20/08 A2988 RMK A01 T01950077  RH  046%=      5-min Rain = 0
KWA1 200047Z 17008KT 20/08 A2989 RMK A01 T01950078  RH  047%=      5-min Rain = 0
KWA1 200048Z 17007KT 20/08 A2989 RMK A01 T01950078  RH  047%=      5-min Rain = 0
KWA1 200049Z 17007KT 20/08 A2989 RMK A01 T01950078  RH  047%=      5-min Rain = 0
KWA1 200050Z 17007KT 19/08 A2989 RMK A01 T01940078  RH  047%=      5-min Rain = 0
KWA1 200051Z 17006KT 19/08 A2988 RMK A01 T01940077  RH  047%=      5-min Rain = 0
KWA1 200052Z 16006KT 19/08 A2988 RMK A01 T01930077  RH  047%=      5-min Rain = 0
KWA1 200053Z 16006KT 19/08 A2988 RMK A01 T01920077  RH  047%=      5-min Rain = 0
KWA1 200054Z 16006KT 19/08 A2988 RMK A01 T01920077  RH  047%=      5-min Rain = 0
KWA1 200055Z 15005KT 19/08 A2988 RMK A01 T01910077  RH  047%=      5-min Rain = 0
KWA1 200056Z 14005KT 19/08 A2988 RMK A01 T01910077  RH  047%=      5-min Rain = 0
KWA1 200057Z 14005KT 19/08 A2988 RMK A01 T01900076  RH  048%=      5-min Rain = 0
KWA1 200058Z 14006KT 19/08 A2988 RMK A01 T01900076  RH  048%=      5-min Rain = 0
KWA1 200059Z 15006KT 19/08 A2988 RMK A01 T01890076  RH  048%=      5-min Rain = 0
KWA1 200100Z 15006KT 19/08 A2988 RMK A01 T01880076  RH  048%=      5-min Rain = 0
KWA1 200101Z 15006KT 19/08 A2988 RMK A01 T01870076  RH  048%=      5-min Rain = 0
KWA1 200102Z 15006KT 19/08 A2988 RMK A01 T01870076  RH  048%=      5-min Rain = 0
KWA1 200103Z 15006KT 19/08 A2988 RMK A01 T01870076  RH  048%=      5-min Rain = 0
KWA1 200104Z 15007KT 19/08 A2988 RMK A01 T01870076  RH  048%=      5-min Rain = 0
KWA1 200105Z 15006KT 19/08 A2988 RMK A01 T01860076  RH  048%=      5-min Rain = 0
KWA1 200106Z 15006KT 19/08 A2988 RMK A01 T01860076  RH  049%=      5-min Rain = 0
KWA1 200107Z 16006KT 19/08 A2988 RMK A01 T01850075  RH  049%=      5-min Rain = 0
KWA1 200108Z 16006KT 19/08 A2988 RMK A01 T01850076  RH  049%=      5-min Rain = 0
KWA1 200109Z 16006KT 19/08 A2988 RMK A01 T01850076  RH  049%=      5-min Rain = 0
KWA1 200110Z 16007KT 18/08 A2988 RMK A01 T01840076  RH  049%=      5-min Rain = 0
KWA1 200111Z 17007KT 18/08 A2989 RMK A01 T01840076  RH  049%=      5-min Rain = 0
KWA1 200112Z 17007KT 18/08 A2989 RMK A01 T01840076  RH  049%=      5-min Rain = 0
KWA1 200113Z 17007KT 18/08 A2989 RMK A01 T01840076  RH  049%=      5-min Rain = 0
KWA1 200114Z 17006KT 18/08 A2989 RMK A01 T01840076  RH  049%=      5-min Rain = 0
KWA1 200115Z 17006KT 18/08 A2989 RMK A01 T01840077  RH  049%=      5-min Rain = 0
KWA1 200116Z 17006KT 18/08 A2989 RMK A01 T01840077  RH  049%=      5-min Rain = 0
KWA1 200117Z 17006KT 18/08 A2989 RMK A01 T01840077  RH  049%=      5-min Rain = 0
KWA1 200118Z 17006KT 18/08 A2989 RMK A01 T01840077  RH  050%=      5-min Rain = 0
KWA1 200119Z 17006KT 18/08 A2989 RMK A01 T01840077  RH  050%=      5-min Rain = 0
KWA1 200120Z 17006KT 18/08 A2989 RMK A01 T01830077  RH  050%=      5-min Rain = 0
KWA1 200121Z 17006KT 18/08 A2989 RMK A01 T01830077  RH  050%=      5-min Rain = 0
KWA1 200122Z 17006KT 18/08 A2989 RMK A01 T01830077  RH  050%=      5-min Rain = 0
KWA1 200123Z 17006KT 18/08 A2989 RMK A01 T01820077  RH  050%=      5-min Rain = 0
KWA1 200124Z 17006KT 18/08 A2989 RMK A01 T01820077  RH  050%=      5-min Rain = 0
KWA1 200125Z 16006KT 18/08 A2989 RMK A01 T01810077  RH  051%=      5-min Rain = 0
KWA1 200126Z 17006KT 18/08 A2989 RMK A01 T01810077  RH  051%=      5-min Rain = 0
KWA1 200127Z 17006KT 18/08 A2989 RMK A01 T01810077  RH  051%=      5-min Rain = 0
KWA1 200128Z 17006KT 18/08 A2989 RMK A01 T01810078  RH  051%=      5-min Rain = 0
KWA1 200129Z 17006KT 18/08 A2989 RMK A01 T01810078  RH  051%=      5-min Rain = 0
KWA1 200130Z 17006KT 18/08 A2989 RMK A01 T01810077  RH  051%=      5-min Rain = 0
KWA1 200131Z 17006KT 18/08 A2989 RMK A01 T01800077  RH  051%=      5-min Rain = 0
KWA1 200132Z 17007KT 18/08 A2989 RMK A01 T01800077  RH  051%=      5-min Rain = 0
KWA1 200133Z 18006KT 18/08 A2989 RMK A01 T01800077  RH  051%=      5-min Rain = 0
KWA1 200134Z 18006KT 18/08 A2989 RMK A01 T01790077  RH  051%=      5-min Rain = 0
KWA1 200135Z 17007KT 18/08 A2989 RMK A01 T01790077  RH  051%=      5-min Rain = 0
KWA1 200136Z 17007KT 18/08 A2989 RMK A01 T01800078  RH  051%=      5-min Rain = 0
KWA1 200137Z 17007KT 18/08 A2989 RMK A01 T01800078  RH  051%=      5-min Rain = 0
KWA1 200138Z 17008KT 18/08 A2989 RMK A01 T01810078  RH  051%=      5-min Rain = 0
KWA1 200139Z 17008KT 18/08 A2989 RMK A01 T01810079  RH  051%=      5-min Rain = 0
KWA1 200140Z 17008KT 18/08 A2989 RMK A01 T01820079  RH  051%=      5-min Rain = 0
KWA1 200141Z 17008KT 18/08 A2989 RMK A01 T01820079  RH  051%=      5-min Rain = 0
KWA1 200142Z 17008KT 18/08 A2989 RMK A01 T01820079  RH  051%=      5-min Rain = 0
KWA1 200143Z 18009KT 18/08 A2989 RMK A01 T01830079  RH  051%=      5-min Rain = 0
KWA1 200144Z 18009KT 18/08 A2989 RMK A01 T01830079  RH  051%=      5-min Rain = 0
KWA1 200145Z 18009KT 18/08 A2989 RMK A01 T01840080  RH  051%=      5-min Rain = 0
KWA1 200146Z 18009KT 18/08 A2989 RMK A01 T01840080  RH  051%=      5-min Rain = 0
KWA1 200147Z 18009KT 18/08 A2989 RMK A01 T01830080  RH  051%=      5-min Rain = 0
KWA1 200148Z 18009KT 18/08 A2989 RMK A01 T01830080  RH  051%=      5-min Rain = 0
KWA1 200149Z 18008KT 18/08 A2989 RMK A01 T01820080  RH  051%=      5-min Rain = 0
KWA1 200150Z 18008KT 18/08 A2989 RMK A01 T01820080  RH  051%=      5-min Rain = 0
KWA1 200151Z 18008KT 18/08 A2989 RMK A01 T01810079  RH  051%=      5-min Rain = 0
KWA1 200152Z 18009KT 18/08 A2989 RMK A01 T01810080  RH  051%=      5-min Rain = 0
KWA1 200153Z 18009KT 18/08 A2989 RMK A01 T01820080  RH  051%=      5-min Rain = 0
KWA1 200154Z 17009KT 18/08 A2989 RMK A01 T01820080  RH  051%=      5-min Rain = 0
KWA1 200155Z 17009KT 18/08 A2989 RMK A01 T01820080  RH  051%=      5-min Rain = 0
KWA1 200156Z 17009KT 18/08 A2989 RMK A01 T01820080  RH  051%=      5-min Rain = 0
KWA1 200157Z 17009KT 18/08 A2989 RMK A01 T01830080  RH  051%=      5-min Rain = 0
KWA1 200158Z 17009KT 18/08 A2989 RMK A01 T01840081  RH  051%=      5-min Rain = 0
KWA1 200159Z 17009KT 19/08 A2989 RMK A01 T01850081  RH  051%=      5-min Rain = 0
KWA1 200200Z 17009KT 19/08 A2989 RMK A01 T01860081  RH  050%=      5-min Rain = 0
KWA1 200201Z 17010KT 19/08 A2989 RMK A01 T01860081  RH  050%=      5-min Rain = 0
KWA1 200202Z 17010KT 19/08 A2989 RMK A01 T01860081  RH  050%=      5-min Rain = 0
KWA1 200203Z 17008KT 19/08 A2989 RMK A01 T01880081  RH  050%=      5-min Rain = 0
KWA1 200204Z 16009KT 19/08 A2988 RMK A01 T01870080  RH  050%=      5-min Rain = 0
KWA1 200205Z 17009KT 19/08 A2988 RMK A01 T01870081  RH  050%=      5-min Rain = 0
KWA1 200206Z 17008KT 19/08 A2988 RMK A01 T01870081  RH  050%=      5-min Rain = 0
KWA1 200207Z 17008KT 19/08 A2988 RMK A01 T01870081  RH  050%=      5-min Rain = 0
KWA1 200208Z 17009KT 19/08 A2988 RMK A01 T01870081  RH  050%=      5-min Rain = 0
KWA1 200209Z 17008KT 19/08 A2989 RMK A01 T01870081  RH  050%=      5-min Rain = 0
KWA1 200210Z 17009KT 19/08 A2989 RMK A01 T01870081  RH  050%=      5-min Rain = 0
KWA1 200211Z 17009KT 19/08 A2989 RMK A01 T01880082  RH  050%=      5-min Rain = 0
KWA1 200212Z 17008KT 19/08 A2989 RMK A01 T01870081  RH  050%=      5-min Rain = 0
KWA1 200213Z 17008KT 19/08 A2989 RMK A01 T01880081  RH  050%=      5-min Rain = 0
KWA1 200214Z 17008KT 19/08 A2989 RMK A01 T01870081  RH  050%=      5-min Rain = 0
KWA1 200215Z 17008KT 19/08 A2989 RMK A01 T01870081  RH  050%=      5-min Rain = 0
KWA1 200216Z 17009KT 19/08 A2989 RMK A01 T01860081  RH  050%=      5-min Rain = 0
KWA1 200217Z 17009KT 19/08 A2989 RMK A01 T01850081  RH  051%=      5-min Rain = 0
KWA1 200218Z 17009KT 19/08 A2989 RMK A01 T01860081  RH  051%=      5-min Rain = 0
KWA1 200219Z 17008KT 19/08 A2989 RMK A01 T01860082  RH  051%=      5-min Rain = 0
KWA1 200220Z 17009KT 19/08 A2989 RMK A01 T01860082  RH  051%=      5-min Rain = 0
KWA1 200221Z 17009KT 19/08 A2989 RMK A01 T01860082  RH  051%=      5-min Rain = 0
KWA1 200222Z 17009KT 19/08 A2989 RMK A01 T01870082  RH  051%=      5-min Rain = 0
KWA1 200223Z 17008KT 19/08 A2989 RMK A01 T01870082  RH  051%=      5-min Rain = 0
KWA1 200224Z 18008KT 19/08 A2989 RMK A01 T01870082  RH  051%=      5-min Rain = 0
KWA1 200225Z 17008KT 19/08 A2989 RMK A01 T01860082  RH  051%=      5-min Rain = 0
KWA1 200226Z 18009KT 19/08 A2989 RMK A01 T01860083  RH  051%=      5-min Rain = 0
KWA1 200227Z 18009KT 19/08 A2989 RMK A01 T01860083  RH  051%=      5-min Rain = 0
KWA1 200228Z 18009KT 19/08 A2989 RMK A01 T01860083  RH  051%=      5-min Rain = 0
KWA1 200229Z 17008KT 19/08 A2989 RMK A01 T01860083  RH  051%=      5-min Rain = 0
KWA1 200230Z 18008KT 19/08 A2989 RMK A01 T01860083  RH  051%=      5-min Rain = 0
KWA1 200231Z 18009KT 19/08 A2989 RMK A01 T01860084  RH  051%=      5-min Rain = 0
KWA1 200232Z 17007KT 19/08 A2989 RMK A01 T01870084  RH  051%=      5-min Rain = 0
KWA1 200233Z 17007KT 19/08 A2989 RMK A01 T01870084  RH  051%=      5-min Rain = 0
KWA1 200234Z 17008KT 19/08 A2989 RMK A01 T01860083  RH  051%=      5-min Rain = 0
KWA1 200235Z 17008KT 19/08 A2989 RMK A01 T01860084  RH  051%=      5-min Rain = 0
KWA1 200236Z 17007KT 19/08 A2989 RMK A01 T01860083  RH  051%=      5-min Rain = 0
KWA1 200237Z 17008KT 19/08 A2989 RMK A01 T01860084  RH  051%=      5-min Rain = 0
KWA1 200238Z 17007KT 19/08 A299 RMK A01 T01850083  RH  051%=      5-min Rain = 0
KWA1 200239Z 17007KT 19/08 A299 RMK A01 T01850083  RH  052%=      5-min Rain = 0
KWA1 200240Z 17007KT 18/08 A299 RMK A01 T01840083  RH  052%=      5-min Rain = 0
KWA1 200241Z 17007KT 18/08 A299 RMK A01 T01830083  RH  052%=      5-min Rain = 0
KWA1 200242Z 17007KT 18/08 A299 RMK A01 T01830083  RH  052%=      5-min Rain = 0
KWA1 200243Z 17007KT 18/08 A299 RMK A01 T01830083  RH  052%=      5-min Rain = 0
KWA1 200244Z 17007KT 18/08 A299 RMK A01 T01830083  RH  052%=      5-min Rain = 0
KWA1 200245Z 17007KT 18/08 A299 RMK A01 T01830083  RH  052%=      5-min Rain = 0
KWA1 200246Z 17007KT 18/08 A299 RMK A01 T01820083  RH  052%=      5-min Rain = 0
KWA1 200247Z 17007KT 18/08 A299 RMK A01 T01820083  RH  052%=      5-min Rain = 0
KWA1 200248Z 17007KT 18/08 A299 RMK A01 T01810082  RH  052%=      5-min Rain = 0
KWA1 200249Z 17007KT 18/08 A299 RMK A01 T01810083  RH  053%=      5-min Rain = 0
KWA1 200250Z 17008KT 18/08 A299 RMK A01 T01810083  RH  053%=      5-min Rain = 0
KWA1 200251Z 17007KT 18/08 A299 RMK A01 T01810083  RH  053%=      5-min Rain = 0
KWA1 200252Z 17008KT 18/08 A299 RMK A01 T01810083  RH  053%=      5-min Rain = 0
KWA1 200253Z 17007KT 18/08 A299 RMK A01 T01810083  RH  053%=      5-min Rain = 0
KWA1 200254Z 18009KT 18/08 A299 RMK A01 T01810084  RH  053%=      5-min Rain = 0
KWA1 200255Z 18009KT 18/09 A299 RMK A01 T01820086  RH  053%=      5-min Rain = 0
KWA1 200256Z 18008KT 18/09 A299 RMK A01 T01840086  RH  053%=      5-min Rain = 0
KWA1 200257Z 18007KT 18/09 A299 RMK A01 T01840086  RH  053%=      5-min Rain = 0
KWA1 200258Z 18008KT 18/09 A299 RMK A01 T01830085  RH  053%=      5-min Rain = 0
KWA1 200259Z 18009KT 18/09 A299 RMK A01 T01820087  RH  054%=      5-min Rain = 0
KWA1 200300Z 17009KT 18/09 A299 RMK A01 T01820088  RH  054%=      5-min Rain = 0
KWA1 200301Z 18012KT 18/09 A299 RMK A01 T01830089  RH  054%=      5-min Rain = 0
KWA1 200302Z 18011KT 18/09 A299 RMK A01 T01840090  RH  054%=      5-min Rain = 0
KWA1 200303Z 18009KT 19/09 A299 RMK A01 T01850090  RH  054%=      5-min Rain = 0
KWA1 200304Z 18011KT 19/09 A299 RMK A01 T01850091  RH  054%=      5-min Rain = 0
KWA1 200305Z 17011KT 19/09 A299 RMK A01 T01850091  RH  054%=      5-min Rain = 0
KWA1 200306Z 18010KT 19/09 A299 RMK A01 T01850092  RH  054%=      5-min Rain = 0
KWA1 200307Z 18011KT 19/09 A299 RMK A01 T01860092  RH  054%=      5-min Rain = 0
KWA1 200308Z 18011KT 19/09 A2991 RMK A01 T01860093  RH  055%=      5-min Rain = 0
KWA1 200309Z 18013KT 19/09 A2991 RMK A01 T01860093  RH  055%=      5-min Rain = 0
KWA1 200310Z 18010KT 19/09 A2991 RMK A01 T01870094  RH  055%=      5-min Rain = 0
KWA1 200311Z 18012KT 19/10 A2991 RMK A01 T01870095  RH  055%=      5-min Rain = 0
KWA1 200312Z 18011KT 19/10 A2991 RMK A01 T01870095  RH  055%=      5-min Rain = 0
KWA1 200313Z 18011G16KT 19/10 A2991 RMK A01 T01870095  RH  055%=      5-min Rain = 0
KWA1 200314Z 18012KT 19/10 A2991 RMK A01 T01880096  RH  055%=      5-min Rain = 0
KWA1 200315Z 18012G17KT 19/10 A2991 RMK A01 T01880096  RH  055%=      5-min Rain = 0
KWA1 200316Z 18013KT 19/10 A2991 RMK A01 T01880097  RH  055%=      5-min Rain = 0
KWA1 200317Z 18013KT 19/10 A299 RMK A01 T01880097  RH  055%=      5-min Rain = 0
KWA1 200318Z 18014G20KT 19/10 A299 RMK A01 T01890097  RH  055%=      5-min Rain = 0
KWA1 200319Z 18015KT 19/10 A299 RMK A01 T01890098  RH  055%=      5-min Rain = 0
KWA1 200320Z 18011KT 19/10 A299 RMK A01 T01900098  RH  055%=      5-min Rain = 0
KWA1 200321Z 17013KT 19/10 A299 RMK A01 T01890098  RH  055%=      5-min Rain = 0
KWA1 200322Z 18012KT 19/10 A299 RMK A01 T01890099  RH  056%=      5-min Rain = 0
KWA1 200323Z 18014KT 19/10 A299 RMK A01 T01890099  RH  056%=      5-min Rain = 0
KWA1 200324Z 18012KT 19/10 A299 RMK A01 T01890099  RH  056%=      5-min Rain = 0
KWA1 200325Z 17012KT 19/10 A299 RMK A01 T01890099  RH  056%=      5-min Rain = 0
KWA1 200326Z 18012KT 19/10 A299 RMK A01 T01890100  RH  056%=      5-min Rain = 0
KWA1 200327Z 17012KT 19/10 A299 RMK A01 T01890099  RH  056%=      5-min Rain = 0
KWA1 200328Z 18012KT 19/10 A299 RMK A01 T01880100  RH  057%=      5-min Rain = 0
KWA1 200329Z 17012KT 19/10 A299 RMK A01 T01870100  RH  057%=      5-min Rain = 0
KWA1 200330Z 18016KT 19/10 A299 RMK A01 T01880101  RH  057%=      5-min Rain = 0
KWA1 200331Z 18012KT 19/10 A299 RMK A01 T01890101  RH  057%=      5-min Rain = 0
KWA1 200332Z 17011KT 19/10 A299 RMK A01 T01890101  RH  057%=      5-min Rain = 0
KWA1 200333Z 17012KT 19/10 A299 RMK A01 T01880101  RH  057%=      5-min Rain = 0
KWA1 200334Z 17011KT 19/10 A2989 RMK A01 T01880101  RH  057%=      5-min Rain = 0
KWA1 200335Z 17012KT 19/10 A2989 RMK A01 T01880102  RH  057%=      5-min Rain = 0
KWA1 200336Z 17013KT 19/10 A2989 RMK A01 T01870102  RH  057%=      5-min Rain = 0
KWA1 200337Z 17012KT 19/10 A299 RMK A01 T01870102  RH  058%=      5-min Rain = 0
KWA1 200338Z 17012G22KT 19/10 A299 RMK A01 T01870102  RH  058%=      5-min Rain = 0
KWA1 200339Z 17015KT 19/10 A2989 RMK A01 T01870102  RH  058%=      5-min Rain = 0
KWA1 200340Z 17014KT 19/10 A299 RMK A01 T01880103  RH  058%=      5-min Rain = 0
KWA1 200341Z 18014KT 19/10 A299 RMK A01 T01880103  RH  058%=      5-min Rain = 0
KWA1 200342Z 17012KT 19/10 A2989 RMK A01 T01880104  RH  058%=      5-min Rain = 0
KWA1 200343Z 17012KT 19/10 A2989 RMK A01 T01880103  RH  058%=      5-min Rain = 0
KWA1 200344Z 17013KT 19/10 A2989 RMK A01 T01870104  RH  058%=      5-min Rain = 0
KWA1 200345Z 17013KT 19/10 A2989 RMK A01 T01870104  RH  058%=      5-min Rain = 0
KWA1 200346Z 17013G18KT 19/10 A2989 RMK A01 T01870104  RH  058%=      5-min Rain = 0
KWA1 200347Z 18013KT 19/10 A2989 RMK A01 T01870104  RH  059%=      5-min Rain = 0
KWA1 200348Z 18012KT 19/10 A2989 RMK A01 T01870104  RH  059%=      5-min Rain = 0
KWA1 200349Z 18012KT 19/11 A2989 RMK A01 T01860105  RH  059%=      5-min Rain = 0
KWA1 200350Z 18014G19KT 19/11 A2989 RMK A01 T01860105  RH  059%=      5-min Rain = 0
KWA1 200351Z 17014KT 19/11 A2989 RMK A01 T01860105  RH  059%=      5-min Rain = 0
KWA1 200352Z 17017KT 19/11 A2989 RMK A01 T01860105  RH  059%=      5-min Rain = 0
KWA1 200353Z 18014KT 19/11 A2989 RMK A01 T01870106  RH  059%=      5-min Rain = 0
KWA1 200354Z 17012G17KT 19/11 A2989 RMK A01 T01870106  RH  059%=      5-min Rain = 0
KWA1 200355Z 18014KT 19/11 A2989 RMK A01 T01860106  RH  059%=      5-min Rain = 0
KWA1 200356Z 17014KT 19/11 A2989 RMK A01 T01860106  RH  059%=      5-min Rain = 0
KWA1 200357Z 17015KT 19/11 A2989 RMK A01 T01860106  RH  060%=      5-min Rain = 0
KWA1 200358Z 17012KT 19/11 A2989 RMK A01 T01860106  RH  060%=      5-min Rain = 0
KWA1 200359Z 17015KT 19/11 A2989 RMK A01 T01860106  RH  060%=      5-min Rain = 0
KWA1 200400Z 17014KT 19/11 A2989 RMK A01 T01860106  RH  060%=      5-min Rain = 0
KWA1 200401Z 17012KT 19/11 A2989 RMK A01 T01860106  RH  060%=      5-min Rain = 0
KWA1 200402Z 18014G19KT 19/11 A2989 RMK A01 T01860106  RH  060%=      5-min Rain = 0
KWA1 200403Z 17013KT 19/11 A2989 RMK A01 T01850106  RH  060%=      5-min Rain = 0
KWA1 200404Z 18013KT 19/11 A2989 RMK A01 T01850107  RH  060%=      5-min Rain = 0
KWA1 200405Z 17013G18KT 19/11 A2989 RMK A01 T01850107  RH  060%=      5-min Rain = 0
KWA1 200406Z 17016KT 19/11 A2989 RMK A01 T01850107  RH  060%=      5-min Rain = 0
KWA1 200407Z 17012G17KT 19/11 A2989 RMK A01 T01850107  RH  060%=      5-min Rain = 0
KWA1 200408Z 18015G20KT 19/11 A2989 RMK A01 T01850107  RH  060%=      5-min Rain = 0
KWA1 200409Z 18015KT 19/11 A2989 RMK A01 T01850107  RH  060%=      5-min Rain = 0
KWA1 200410Z 18012KT 19/11 A2989 RMK A01 T01860107  RH  060%=      5-min Rain = 0
KWA1 200411Z 17015KT 19/11 A2989 RMK A01 T01850107  RH  060%=      5-min Rain = 0
KWA1 200412Z 18016KT 19/11 A2989 RMK A01 T01850108  RH  061%=      5-min Rain = 0
KWA1 200413Z 17015G20KT 19/11 A2989 RMK A01 T01850108  RH  061%=      5-min Rain = 0
KWA1 200414Z 18016KT 19/11 A2989 RMK A01 T01850108  RH  061%=      5-min Rain = 0
KWA1 200415Z 17014KT 19/11 A2989 RMK A01 T01860108  RH  061%=      5-min Rain = 0
KWA1 200416Z 18013KT 19/11 A2989 RMK A01 T01860108  RH  061%=      5-min Rain = 0
KWA1 200417Z 17014KT 19/11 A2989 RMK A01 T01850108  RH  061%=      5-min Rain = 0
KWA1 200418Z 17016KT 19/11 A2989 RMK A01 T01850108  RH  061%=      5-min Rain = 0
KWA1 200419Z 17015KT 19/11 A2989 RMK A01 T01850108  RH  061%=      5-min Rain = 0
KWA1 200420Z 17013G18KT 19/11 A2989 RMK A01 T01850108  RH  061%=      5-min Rain = 0
KWA1 200421Z 17013KT 18/11 A2989 RMK A01 T01840108  RH  061%=      5-min Rain = 0
KWA1 200422Z 17013KT 18/11 A2989 RMK A01 T01840109  RH  061%=      5-min Rain = 0
KWA1 200423Z 17015KT 18/11 A2989 RMK A01 T01840109  RH  061%=      5-min Rain = 0
KWA1 200424Z 17014KT 18/11 A2989 RMK A01 T01840109  RH  061%=      5-min Rain = 0
KWA1 200425Z 17012KT 18/11 A2989 RMK A01 T01840108  RH  061%=      5-min Rain = 0
KWA1 200426Z 17015KT 18/11 A2989 RMK A01 T01840109  RH  061%=      5-min Rain = 0
KWA1 200427Z 17014KT 18/11 A2989 RMK A01 T01840109  RH  061%=      5-min Rain = 0
KWA1 200428Z 17013KT 18/11 A2989 RMK A01 T01840109  RH  061%=      5-min Rain = 0
KWA1 200429Z 17012KT 18/11 A2989 RMK A01 T01840109  RH  061%=      5-min Rain = 0
KWA1 200430Z 17013KT 18/11 A2989 RMK A01 T01830108  RH  062%=      5-min Rain = 0
KWA1 200431Z 17012KT 18/11 A2989 RMK A01 T01830109  RH  062%=      5-min Rain = 0
KWA1 200432Z 17014KT 18/11 A2989 RMK A01 T01830109  RH  062%=      5-min Rain = 0
KWA1 200433Z 17013KT 18/11 A2989 RMK A01 T01830109  RH  062%=      5-min Rain = 0
KWA1 200434Z 17012KT 18/11 A2989 RMK A01 T01830109  RH  062%=      5-min Rain = 0
KWA1 200435Z 18012KT 18/11 A2989 RMK A01 T01830109  RH  062%=      5-min Rain = 0
KWA1 200436Z 18011KT 18/11 A2989 RMK A01 T01830109  RH  062%=      5-min Rain = 0
KWA1 200437Z 17011KT 18/11 A2989 RMK A01 T01820109  RH  062%=      5-min Rain = 0
KWA1 200438Z 18012KT 18/11 A2989 RMK A01 T01820109  RH  062%=      5-min Rain = 0
KWA1 200439Z 17013KT 18/11 A2989 RMK A01 T01820109  RH  062%=      5-min Rain = 0
KWA1 200440Z 17016KT 18/11 A2989 RMK A01 T01820109  RH  063%=      5-min Rain = 0
KWA1 200441Z 17012KT 18/11 A2989 RMK A01 T01830110  RH  062%=      5-min Rain = 0
KWA1 200442Z 17011KT 18/11 A2989 RMK A01 T01820109  RH  062%=      5-min Rain = 0
KWA1 200443Z 17011KT 18/11 A2989 RMK A01 T01820109  RH  063%=      5-min Rain = 0
KWA1 200444Z 17014G20KT 18/11 A2989 RMK A01 T01810109  RH  063%=      5-min Rain = 0
KWA1 200445Z 18014KT 18/11 A2989 RMK A01 T01810110  RH  063%=      5-min Rain = 0
KWA1 200446Z 17011KT 18/11 A2989 RMK A01 T01820110  RH  063%=      5-min Rain = 0
KWA1 200447Z 18012KT 18/11 A2989 RMK A01 T01810110  RH  063%=      5-min Rain = 0
KWA1 200448Z 17011KT 18/11 A2989 RMK A01 T01810110  RH  063%=      5-min Rain = 0
KWA1 200449Z 17013KT 18/11 A2989 RMK A01 T01810110  RH  063%=      5-min Rain = 0
KWA1 200450Z 17012KT 18/11 A299 RMK A01 T01810110  RH  063%=      5-min Rain = 0
KWA1 200451Z 17011KT 18/11 A299 RMK A01 T01810110  RH  063%=      5-min Rain = 0
KWA1 200452Z 17013KT 18/11 A2989 RMK A01 T01800110  RH  064%=      5-min Rain = 0
KWA1 200453Z 17011KT 18/11 A2989 RMK A01 T01800111  RH  064%=      5-min Rain = 0
KWA1 200454Z 17012G17KT 18/11 A2989 RMK A01 T01800111  RH  064%=      5-min Rain = 0
KWA1 200455Z 17012KT 18/11 A2989 RMK A01 T01800111  RH  064%=      5-min Rain = 0
KWA1 200456Z 18014KT 18/11 A2989 RMK A01 T01810111  RH  064%=      5-min Rain = 0
KWA1 200457Z 17010G15KT 18/11 A2989 RMK A01 T01810112  RH  064%=      5-min Rain = 0
KWA1 200458Z 17010KT 18/11 A2989 RMK A01 T01810111  RH  064%=      5-min Rain = 0
KWA1 200459Z 17011KT 18/11 A2989 RMK A01 T01800111  RH  064%=      5-min Rain = 0
KWA1 200500Z 17012KT 18/11 A2989 RMK A01 T01800111  RH  064%=      5-min Rain = 0
KWA1 200501Z 17013KT 18/11 A2989 RMK A01 T01800112  RH  064%=      5-min Rain = 0
KWA1 200502Z 17013KT 18/11 A2989 RMK A01 T01800112  RH  064%=      5-min Rain = 0
KWA1 200503Z 17010KT 18/11 A2989 RMK A01 T01800112  RH  064%=      5-min Rain = 0
KWA1 200504Z 17010KT 18/11 A2989 RMK A01 T01800111  RH  064%=      5-min Rain = 0
KWA1 200505Z 17012KT 18/11 A2988 RMK A01 T01790112  RH  065%=      5-min Rain = 0
KWA1 200506Z 17010KT 18/11 A2988 RMK A01 T01790112  RH  065%=      5-min Rain = 0
KWA1 200507Z 17010KT 18/11 A2988 RMK A01 T01790112  RH  065%=      5-min Rain = 0
KWA1 200508Z 17011KT 18/11 A2988 RMK A01 T01790112  RH  065%=      5-min Rain = 0
KWA1 200509Z 17011KT 18/11 A2988 RMK A01 T01790112  RH  065%=      5-min Rain = 0
KWA1 200510Z 17010KT 18/11 A2989 RMK A01 T01790112  RH  065%=      5-min Rain = 0
KWA1 200511Z 18009KT 18/11 A2989 RMK A01 T01790112  RH  065%=      5-min Rain = 0
KWA1 200512Z 17012KT 18/11 A2989 RMK A01 T01790113  RH  065%=      5-min Rain = 0
KWA1 200513Z 17011KT 18/11 A2989 RMK A01 T01790112  RH  065%=      5-min Rain = 0
KWA1 200514Z 18012KT 18/11 A2989 RMK A01 T01790113  RH  065%=      5-min Rain = 0
KWA1 200515Z 17011KT 18/11 A2989 RMK A01 T01790113  RH  065%=      5-min Rain = 0
KWA1 200516Z 18011KT 18/11 A2989 RMK A01 T01790113  RH  065%=      5-min Rain = 0
KWA1 200517Z 18012KT 18/11 A2989 RMK A01 T01790113  RH  065%=      5-min Rain = 0
KWA1 200518Z 17012KT 18/11 A2989 RMK A01 T01790113  RH  065%=      5-min Rain = 0
KWA1 200519Z 17015KT 18/11 A2988 RMK A01 T01790113  RH  065%=      5-min Rain = 0
KWA1 200520Z 17015KT 18/11 A2988 RMK A01 T01790114  RH  065%=      5-min Rain = 0
KWA1 200521Z 18011KT 18/11 A2989 RMK A01 T01800114  RH  065%=      5-min Rain = 0
KWA1 200522Z 18011KT 18/11 A2989 RMK A01 T01790113  RH  065%=      5-min Rain = 0
KWA1 200523Z 18011KT 18/11 A2989 RMK A01 T01780113  RH  066%=      5-min Rain = 0
KWA1 200524Z 18013KT 18/11 A2989 RMK A01 T01780114  RH  066%=      5-min Rain = 0
KWA1 200525Z 18012KT 18/11 A2989 RMK A01 T01780114  RH  066%=      5-min Rain = 0
KWA1 200526Z 18011KT 18/11 A2988 RMK A01 T01780114  RH  066%=      5-min Rain = 0
KWA1 200527Z 18010KT 18/11 A2988 RMK A01 T01770114  RH  066%=      5-min Rain = 0
KWA1 200528Z 18013KT 18/11 A2988 RMK A01 T01770114  RH  066%=      5-min Rain = 0
KWA1 200529Z 18013KT 18/11 A2988 RMK A01 T01770114  RH  067%=      5-min Rain = 0
KWA1 200530Z 18011KT 18/11 A2988 RMK A01 T01780114  RH  066%=      5-min Rain = 0
KWA1 200531Z 18015KT 18/11 A2988 RMK A01 T01770114  RH  066%=      5-min Rain = 0
KWA1 200532Z 18015KT 18/12 A2988 RMK A01 T01780115  RH  066%=      5-min Rain = 0
KWA1 200533Z 18014KT 18/12 A2988 RMK A01 T01780115  RH  066%=      5-min Rain = 0
KWA1 200534Z 18014KT 18/12 A2988 RMK A01 T01780115  RH  066%=      5-min Rain = 0
KWA1 200535Z 18014KT 18/12 A2988 RMK A01 T01780115  RH  066%=      5-min Rain = 0
KWA1 200536Z 18012G19KT 18/12 A2988 RMK A01 T01780115  RH  067%=      5-min Rain = 0
KWA1 200537Z 18015KT 18/12 A2988 RMK A01 T01780115  RH  067%=      5-min Rain = 0
KWA1 200538Z 18015KT 18/12 A2988 RMK A01 T01770115  RH  067%=      5-min Rain = 0
KWA1 200539Z 18015KT 18/12 A2988 RMK A01 T01780116  RH  067%=      5-min Rain = 0
KWA1 200540Z 18015KT 18/12 A2988 RMK A01 T01780116  RH  067%=      5-min Rain = 0
KWA1 200541Z 18015G20KT 18/12 A2988 RMK A01 T01780116  RH  067%=      5-min Rain = 0
KWA1 200542Z 18014KT 18/12 A2988 RMK A01 T01780116  RH  067%=      5-min Rain = 0
KWA1 200543Z 18015G20KT 18/12 A2988 RMK A01 T01770116  RH  067%=      5-min Rain = 0
KWA1 200544Z 18016KT 18/12 A2988 RMK A01 T01770116  RH  067%=      5-min Rain = 0
KWA1 200545Z 18017KT 18/12 A2988 RMK A01 T01770116  RH  067%=      5-min Rain = 0
KWA1 200546Z 18015KT 18/12 A2988 RMK A01 T01770116  RH  067%=      5-min Rain = 0
KWA1 200547Z 18016KT 18/12 A2987 RMK A01 T01770116  RH  068%=      5-min Rain = 0
KWA1 200548Z 18014KT 18/12 A2987 RMK A01 T01770116  RH  068%=      5-min Rain = 0
KWA1 200549Z 18017KT 18/12 A2987 RMK A01 T01770117  RH  068%=      5-min Rain = 0
KWA1 200550Z 18015KT 18/12 A2987 RMK A01 T01770117  RH  068%=      5-min Rain = 0
KWA1 200551Z 18019G25KT 18/12 A2987 RMK A01 T01770117  RH  068%=      5-min Rain = 0
KWA1 200552Z 19015KT 18/12 A2987 RMK A01 T01770117  RH  068%=      5-min Rain = 0
KWA1 200553Z 18014G19KT 18/12 A2987 RMK A01 T01770117  RH  068%=      5-min Rain = 0
KWA1 200554Z 18016G23KT 18/12 A2987 RMK A01 T01760117  RH  068%=      5-min Rain = 0
KWA1 200555Z 19015KT 18/12 A2987 RMK A01 T01760117  RH  068%=      5-min Rain = 0
KWA1 200556Z 18017KT 18/12 A2987 RMK A01 T01760117  RH  068%=      5-min Rain = 0
KWA1 200557Z 18016KT 18/12 A2987 RMK A01 T01760117  RH  068%=      5-min Rain = 0
KWA1 200558Z 18013KT 18/12 A2987 RMK A01 T01760118  RH  069%=      5-min Rain = 0
KWA1 200559Z 18015KT 18/12 A2987 RMK A01 T01760118  RH  069%=      5-min Rain = 0

Page generated in 0.1181 seconds.